Wetterdaten: Montag, 17.02.2020
Datum Zeit Temp. Aussen Temp. o. S. Temp +5cm Feuchte Auss Luftdruck Regen Sonnenschein Regendauer Solar Windben Empfang
17.02.2020 00:00 7,7 C 6,1 C 6,1 C 96 % 1008,0 hPa 0,0 l/m 0 min 2 min 0 W/m 38,6 km/h (5 Bft) 97,87 %
17.02.2020 00:02 7,6 C 6,1 C 6,1 C 96 % 1007,8 hPa 0,0 l/m 0 min 2 min 0 W/m 41,8 km/h (6 Bft) 100,00 %
17.02.2020 00:04 7,6 C 6,1 C 6,1 C 96 % 1008,0 hPa 0,2 l/m 0 min 2 min 0 W/m 29,0 km/h (5 Bft) 97,87 %
17.02.2020 00:08 7,6 C 6,1 C 6,1 C 95 % 1007,7 hPa 0,0 l/m 0 min 4 min 0 W/m 41,8 km/h (6 Bft) 98,94 %
17.02.2020 00:10 7,6 C 6,1 C 6,1 C 95 % 1007,7 hPa 0,0 l/m 0 min 2 min 0 W/m 25,7 km/h (4 Bft) 89,13 %
17.02.2020 00:12 7,6 C 6,1 C 6,1 C 95 % 1007,6 hPa 0,0 l/m 0 min 2 min 0 W/m 38,6 km/h (5 Bft) 62,79 %
17.02.2020 00:14 7,6 C 6,1 C 6,1 C 95 % 1007,7 hPa 0,0 l/m 0 min 2 min 0 W/m 29,0 km/h (5 Bft) 97,87 %
17.02.2020 00:16 7,6 C 6,1 C 6,1 C 95 % 1007,3 hPa 0,0 l/m 0 min 0 min 0 W/m 22,5 km/h (4 Bft) 100,00 %
17.02.2020 00:18 7,6 C 6,1 C 6,1 C 95 % 1007,2 hPa 0,0 l/m 0 min 0 min 0 W/m 25,7 km/h (4 Bft) 97,87 %
17.02.2020 00:20 7,5 C 6,1 C 6,1 C 95 % 1007,0 hPa 0,0 l/m 0 min 0 min 0 W/m 35,4 km/h (5 Bft) 100,00 %
17.02.2020 00:22 7,6 C 6,1 C 6,1 C 95 % 1007,3 hPa 0,0 l/m 0 min 0 min 0 W/m 32,2 km/h (5 Bft) 97,83 %
17.02.2020 00:24 7,6 C 6,7 C 6,1 C 95 % 1007,7 hPa 0,0 l/m 0 min 0 min 0 W/m 32,2 km/h (5 Bft) 97,87 %
17.02.2020 00:26 7,6 C 6,7 C 6,1 C 95 % 1007,7 hPa 0,0 l/m 0 min 0 min 0 W/m 29,0 km/h (5 Bft) 97,87 %
17.02.2020 00:28 7,6 C 6,7 C 6,1 C 95 % 1007,8 hPa 0,0 l/m 0 min 0 min 0 W/m 25,7 km/h (4 Bft) 97,87 %
17.02.2020 00:30 7,6 C 6,7 C 6,1 C 95 % 1007,7 hPa 0,0 l/m 0 min 0 min 0 W/m 32,2 km/h (5 Bft) 97,87 %
17.02.2020 00:32 7,6 C 6,7 C 6,1 C 95 % 1008,1 hPa 0,0 l/m 0 min 0 min 0 W/m 29,0 km/h (5 Bft) 95,65 %
17.02.2020 00:34 7,6 C 6,7 C 6,1 C 95 % 1008,2 hPa 0,0 l/m 0 min 0 min 0 W/m 38,6 km/h (5 Bft) 97,87 %
17.02.2020 00:36 7,6 C 6,7 C 6,1 C 95 % 1008,4 hPa 0,0 l/m 0 min 0 min 0 W/m 25,7 km/h (4 Bft) 97,87 %
17.02.2020 00:38 7,6 C 6,7 C 6,1 C 95 % 1008,2 hPa 0,0 l/m 0 min 0 min 0 W/m 32,2 km/h (5 Bft) 95,74 %
17.02.2020 00:40 7,6 C 6,7 C 6,1 C 94 % 1008,3 hPa 0,0 l/m 0 min 0 min 0 W/m 22,5 km/h (4 Bft) 97,87 %
17.02.2020 00:42 7,6 C 6,7 C 6,1 C 95 % 1008,3 hPa 0,0 l/m 0 min 0 min 0 W/m 22,5 km/h (4 Bft) 97,87 %
17.02.2020 00:44 7,6 C 6,7 C 6,1 C 94 % 1008,6 hPa 0,0 l/m 0 min 0 min 0 W/m 51,5 km/h (7 Bft) 97,87 %
17.02.2020 00:46 7,6 C 6,7 C 6,1 C 94 % 1008,5 hPa 0,0 l/m 0 min 0 min 0 W/m 22,5 km/h (4 Bft) 97,83 %
17.02.2020 00:48 7,6 C 6,7 C 6,1 C 94 % 1008,6 hPa 0,0 l/m 0 min 0 min 0 W/m 22,5 km/h (4 Bft) 97,87 %
17.02.2020 00:50 7,6 C 6,7 C 6,1 C 94 % 1008,4 hPa 0,0 l/m 0 min 0 min 0 W/m 25,7 km/h (4 Bft) 97,87 %
17.02.2020 00:52 7,6 C 6,7 C 6,1 C 94 % 1008,3 hPa 0,0 l/m 0 min 0 min 0 W/m 38,6 km/h (5 Bft) 97,87 %
17.02.2020 00:54 7,7 C 6,7 C 6,1 C 94 % 1008,4 hPa 0,0 l/m 0 min 0 min 0 W/m 45,1 km/h (6 Bft) 97,87 %
17.02.2020 00:56 7,7 C 6,7 C 6,1 C 93 % 1008,3 hPa 0,0 l/m 0 min 0 min 0 W/m 22,5 km/h (4 Bft) 97,83 %
17.02.2020 00:58 7,7 C 6,7 C 6,1 C 93 % 1008,5 hPa 0,0 l/m 0 min 0 min 0 W/m 35,4 km/h (5 Bft) 97,87 %
17.02.2020 01:00 7,8 C 6,7 C 6,1 C 93 % 1008,5 hPa 0,0 l/m 0 min 0 min 0 W/m 32,2 km/h (5 Bft) 93,62 %
17.02.2020 01:02 7,8 C 6,7 C 6,1 C 93 % 1008,5 hPa 0,0 l/m 0 min 0 min 0 W/m 29,0 km/h (5 Bft) 97,87 %
17.02.2020 01:04 7,8 C 6,7 C 6,1 C 93 % 1008,8 hPa 0,0 l/m 0 min 0 min 0 W/m 22,5 km/h (4 Bft) 97,87 %
17.02.2020 01:06 7,8 C 6,7 C 6,1 C 92 % 1008,7 hPa 0,0 l/m 0 min 0 min 0 W/m 22,5 km/h (4 Bft) 97,87 %
17.02.2020 01:08 7,9 C 6,7 C 6,1 C 92 % 1008,8 hPa 0,0 l/m 0 min 0 min 0 W/m 19,3 km/h (3 Bft) 95,65 %
17.02.2020 01:10 7,9 C 6,7 C 6,1 C 92 % 1008,8 hPa 0,0 l/m 0 min 0 min 0 W/m 35,4 km/h (5 Bft) 95,74 %
17.02.2020 01:12 7,9 C 6,7 C 6,1 C 92 % 1009,0 hPa 0,0 l/m 0 min 0 min 0 W/m 25,7 km/h (4 Bft) 95,74 %
17.02.2020 01:14 7,9 C 6,7 C 6,1 C 92 % 1009,1 hPa 0,0 l/m 0 min 0 min 0 W/m 29,0 km/h (5 Bft) 95,74 %
17.02.2020 01:16 8,0 C 6,7 C 6,1 C 92 % 1008,9 hPa 0,0 l/m 0 min 0 min 0 W/m 25,7 km/h (4 Bft) 93,62 %
17.02.2020 01:18 8,0 C 6,7 C 6,1 C 91 % 1009,1 hPa 0,0 l/m 0 min 0 min 0 W/m 45,1 km/h (6 Bft) 95,74 %
17.02.2020 01:20 8,1 C 6,7 C 6,1 C 91 % 1009,1 hPa 0,0 l/m 0 min 0 min 0 W/m 35,4 km/h (5 Bft) 91,30 %
17.02.2020 01:22 8,1 C 6,7 C 6,1 C 91 % 1008,9 hPa 0,0 l/m 0 min 0 min 0 W/m 25,7 km/h (4 Bft) 95,74 %
17.02.2020 01:24 8,1 C 6,7 C 6,1 C 90 % 1008,9 hPa 0,0 l/m 0 min 0 min 0 W/m 22,5 km/h (4 Bft) 95,74 %
17.02.2020 01:26 8,1 C 6,7 C 6,1 C 90 % 1009,1 hPa 0,0 l/m 0 min 0 min 0 W/m 22,5 km/h (4 Bft) 97,87 %
17.02.2020 01:28 8,1 C 6,7 C 6,1 C 90 % 1009,0 hPa 0,0 l/m 0 min 0 min 0 W/m 29,0 km/h (5 Bft) 97,87 %
17.02.2020 01:30 8,1 C 7,2 C 6,1 C 90 % 1008,9 hPa 0,0 l/m 0 min 0 min 0 W/m 25,7 km/h (4 Bft) 97,87 %
17.02.2020 01:32 8,1 C 7,2 C 6,1 C 90 % 1009,1 hPa 0,0 l/m 0 min 0 min 0 W/m 38,6 km/h (5 Bft) 97,83 %
17.02.2020 01:34 8,2 C 7,2 C 6,1 C 90 % 1009,0 hPa 0,0 l/m 0 min 0 min 0 W/m 38,6 km/h (5 Bft) 97,87 %
17.02.2020 01:36 8,2 C 7,2 C 6,1 C 89 % 1009,2 hPa 0,0 l/m 0 min 0 min 0 W/m 25,7 km/h (4 Bft) 93,62 %
17.02.2020 01:38 8,2 C 7,2 C 6,1 C 89 % 1009,2 hPa 0,0 l/m 0 min 0 min 0 W/m 16,1 km/h (3 Bft) 56,52 %
17.02.2020 01:40 8,2 C 7,2 C 6,1 C 89 % 1009,2 hPa 0,0 l/m 0 min 0 min 0 W/m 22,5 km/h (4 Bft) 95,74 %
17.02.2020 01:42 8,2 C 7,2 C 6,1 C 89 % 1009,2 hPa 0,0 l/m 0 min 0 min 0 W/m 25,7 km/h (4 Bft) 97,83 %
17.02.2020 01:44 8,2 C 7,2 C 6,1 C 89 % 1009,4 hPa 0,0 l/m 0 min 0 min 0 W/m 41,8 km/h (6 Bft) 97,87 %
17.02.2020 01:46 8,2 C 7,8 C 6,1 C 89 % 1009,4 hPa 0,0 l/m 0 min 0 min 0 W/m 22,5 km/h (4 Bft) 97,87 %
17.02.2020 01:48 8,2 C 7,2 C 6,1 C 89 % 1009,4 hPa 0,0 l/m 0 min 0 min 0 W/m 16,1 km/h (3 Bft) 97,87 %
17.02.2020 01:50 8,2 C 7,8 C 6,1 C 89 % 1009,4 hPa 0,0 l/m 0 min 0 min 0 W/m 29,0 km/h (5 Bft) 93,62 %
17.02.2020 01:52 8,2 C 7,8 C 6,1 C 89 % 1009,5 hPa 0,0 l/m 0 min 0 min 0 W/m 16,1 km/h (3 Bft) 93,62 %
17.02.2020 01:54 8,2 C 7,8 C 6,1 C 88 % 1009,6 hPa 0,0 l/m 0 min 0 min 0 W/m 22,5 km/h (4 Bft) 95,65 %
17.02.2020 01:56 8,3 C 7,8 C 6,1 C 89 % 1009,6 hPa 0,0 l/m 0 min 0 min 0 W/m 38,6 km/h (5 Bft) 97,87 %
17.02.2020 01:58 8,3 C 7,8 C 6,1 C 88 % 1009,8 hPa 0,0 l/m 0 min 0 min 0 W/m 35,4 km/h (5 Bft) 97,87 %
17.02.2020 02:00 8,3 C 7,8 C 6,1 C 88 % 1009,8 hPa 0,0 l/m 0 min 0 min 0 W/m 38,6 km/h (5 Bft) 97,87 %
17.02.2020 02:02 8,3 C 7,8 C 6,1 C 88 % 1009,7 hPa 0,0 l/m 0 min 0 min 0 W/m 45,1 km/h (6 Bft) 97,87 %
17.02.2020 02:04 8,3 C 7,8 C 6,1 C 88 % 1009,8 hPa 0,0 l/m 0 min 0 min 0 W/m 25,7 km/h (4 Bft) 97,87 %
17.02.2020 02:06 8,3 C 7,8 C 6,1 C 88 % 1009,7 hPa 0,0 l/m 0 min 0 min 0 W/m 22,5 km/h (4 Bft) 95,65 %
17.02.2020 02:08 8,3 C 7,8 C 6,1 C 88 % 1009,7 hPa 0,0 l/m 0 min 0 min 0 W/m 32,2 km/h (5 Bft) 95,74 %
17.02.2020 02:10 8,3 C 7,8 C 6,1 C 88 % 1010,0 hPa 0,0 l/m 0 min 0 min 0 W/m 25,7 km/h (4 Bft) 95,74 %
17.02.2020 02:12 8,3 C 7,8 C 6,1 C 88 % 1010,0 hPa 0,0 l/m 0 min 0 min 0 W/m 38,6 km/h (5 Bft) 97,87 %
17.02.2020 02:14 8,3 C 7,8 C 6,1 C 88 % 1009,9 hPa 0,0 l/m 0 min 0 min 0 W/m 25,7 km/h (4 Bft) 97,87 %
17.02.2020 02:16 8,3 C 7,8 C 6,1 C 88 % 1010,1 hPa 0,0 l/m 0 min 0 min 0 W/m 32,2 km/h (5 Bft) 97,87 %
17.02.2020 02:18 8,4 C 7,8 C 6,1 C 88 % 1010,0 hPa 0,0 l/m 0 min 0 min 0 W/m 29,0 km/h (5 Bft) 97,83 %
17.02.2020 02:20 8,4 C 7,8 C 6,1 C 88 % 1010,1 hPa 0,0 l/m 0 min 0 min 0 W/m 25,7 km/h (4 Bft) 97,87 %
17.02.2020 02:22 8,4 C 7,8 C 6,1 C 88 % 1010,2 hPa 0,0 l/m 0 min 0 min 0 W/m 35,4 km/h (5 Bft) 97,87 %
17.02.2020 02:24 8,4 C 7,8 C 6,1 C 88 % 1010,1 hPa 0,0 l/m 0 min 0 min 0 W/m 29,0 km/h (5 Bft) 95,74 %
17.02.2020 02:26 8,4 C 7,8 C 6,1 C 88 % 1010,1 hPa 0,0 l/m 0 min 0 min 0 W/m 29,0 km/h (5 Bft) 97,87 %
17.02.2020 02:28 8,4 C 7,8 C 6,1 C 88 % 1010,2 hPa 0,0 l/m 0 min 0 min 0 W/m 32,2 km/h (5 Bft) 97,87 %
17.02.2020 02:30 8,4 C 7,8 C 6,1 C 87 % 1010,2 hPa 0,0 l/m 0 min 0 min 0 W/m 22,5 km/h (4 Bft) 97,83 %
17.02.2020 02:32 8,4 C 7,8 C 6,1 C 87 % 1010,2 hPa 0,0 l/m 0 min 0 min 0 W/m 32,2 km/h (5 Bft) 100,00 %
17.02.2020 02:34 8,4 C 7,8 C 6,1 C 87 % 1010,2 hPa 0,0 l/m 0 min 0 min 0 W/m 22,5 km/h (4 Bft) 100,00 %
17.02.2020 02:36 8,4 C 7,8 C 6,1 C 87 % 1010,1 hPa 0,0 l/m 0 min 0 min 0 W/m 22,5 km/h (4 Bft) 100,00 %
17.02.2020 02:38 8,4 C 7,8 C 6,1 C 88 % 1010,4 hPa 0,0 l/m 0 min 0 min 0 W/m 32,2 km/h (5 Bft) 100,00 %
17.02.2020 02:40 8,4 C 7,8 C 6,1 C 87 % 1010,2 hPa 0,0 l/m 0 min 0 min 0 W/m 22,5 km/h (4 Bft) 100,00 %
17.02.2020 02:42 8,4 C 7,8 C 6,1 C 87 % 1010,2 hPa 0,0 l/m 0 min 0 min 0 W/m 29,0 km/h (5 Bft) 95,65 %
17.02.2020 02:44 8,4 C 7,8 C 6,1 C 87 % 1010,3 hPa 0,0 l/m 0 min 0 min 0 W/m 22,5 km/h (4 Bft) 100,00 %
17.02.2020 02:46 8,4 C 7,8 C 6,1 C 87 % 1010,4 hPa 0,0 l/m 0 min 0 min 0 W/m 19,3 km/h (3 Bft) 97,87 %
17.02.2020 02:48 8,4 C 7,8 C 6,1 C 87 % 1010,4 hPa 0,0 l/m 0 min 0 min 0 W/m 25,7 km/h (4 Bft) 97,87 %
17.02.2020 02:50 8,4 C 7,8 C 6,1 C 87 % 1010,5 hPa 0,0 l/m 0 min 0 min 0 W/m 29,0 km/h (5 Bft) 100,00 %
17.02.2020 02:52 8,4 C 7,8 C 6,1 C 87 % 1010,5 hPa 0,0 l/m 0 min 0 min 0 W/m 19,3 km/h (3 Bft) 100,00 %
17.02.2020 02:54 8,3 C 7,8 C 6,1 C 87 % 1010,4 hPa 0,0 l/m 0 min 0 min 0 W/m 29,0 km/h (5 Bft) 100,00 %
17.02.2020 02:56 8,4 C 7,8 C 6,1 C 87 % 1010,7 hPa 0,0 l/m 0 min 0 min 0 W/m 48,3 km/h (6 Bft) 100,00 %
17.02.2020 02:58 8,4 C 7,8 C 6,1 C 87 % 1010,7 hPa 0,0 l/m 0 min 0 min 0 W/m 32,2 km/h (5 Bft) 100,00 %
17.02.2020 03:00 8,4 C 7,8 C 6,1 C 87 % 1010,6 hPa 0,0 l/m 0 min 0 min 0 W/m 25,7 km/h (4 Bft) 100,00 %
17.02.2020 03:02 8,4 C 7,8 C 6,1 C 87 % 1010,6 hPa 0,0 l/m 0 min 0 min 0 W/m 22,5 km/h (4 Bft) 97,87 %
17.02.2020 03:04 8,4 C 7,8 C 6,1 C 87 % 1010,6 hPa 0,0 l/m 0 min 0 min 0 W/m 19,3 km/h (3 Bft) 97,87 %
17.02.2020 03:06 8,4 C 7,8 C 6,1 C 87 % 1011,0 hPa 0,0 l/m 0 min 0 min 0 W/m 29,0 km/h (5 Bft) 100,00 %
17.02.2020 03:08 8,4 C 7,8 C 6,1 C 87 % 1010,7 hPa 0,0 l/m 0 min 0 min 0 W/m 22,5 km/h (4 Bft) 100,00 %
17.02.2020 03:10 8,4 C 7,8 C 6,1 C 87 % 1010,6 hPa 0,0 l/m 0 min 0 min 0 W/m 22,5 km/h (4 Bft) 100,00 %
17.02.2020 03:12 8,4 C 7,8 C 6,1 C 87 % 1010,6 hPa 0,0 l/m 0 min 0 min 0 W/m 22,5 km/h (4 Bft) 100,00 %
17.02.2020 03:14 8,3 C 7,8 C 6,1 C 87 % 1010,7 hPa 0,0 l/m 0 min 0 min 0 W/m 19,3 km/h (3 Bft) 100,00 %
17.02.2020 03:16 8,3 C 7,8 C 6,1 C 87 % 1010,6 hPa 0,0 l/m 0 min 0 min 0 W/m 29,0 km/h (5 Bft) 100,00 %
17.02.2020 03:18 8,3 C 7,8 C 6,1 C 86 % 1010,6 hPa 0,0 l/m 0 min 0 min 0 W/m 35,4 km/h (5 Bft) 100,00 %
17.02.2020 03:20 8,3 C 7,8 C 6,1 C 86 % 1010,7 hPa 0,0 l/m 0 min 0 min 0 W/m 29,0 km/h (5 Bft) 100,00 %
17.02.2020 03:22 8,3 C 7,8 C 6,1 C 86 % 1010,6 hPa 0,0 l/m 0 min 0 min 0 W/m 29,0 km/h (5 Bft) 100,00 %
17.02.2020 03:24 8,3 C 7,8 C 6,1 C 86 % 1010,7 hPa 0,0 l/m 0 min 0 min 0 W/m 32,2 km/h (5 Bft) 100,00 %
17.02.2020 03:26 8,3 C 7,8 C 6,1 C 86 % 1010,7 hPa 0,0 l/m 0 min 0 min 0 W/m 45,1 km/h (6 Bft) 100,00 %
17.02.2020 03:28 8,3 C 7,8 C 6,1 C 86 % 1010,7 hPa 0,0 l/m 0 min 0 min 0 W/m 32,2 km/h (5 Bft) 97,83 %
17.02.2020 03:30 8,4 C 7,8 C 6,1 C 86 % 1011,2 hPa 0,0 l/m 0 min 0 min 0 W/m 41,8 km/h (6 Bft) 100,00 %
17.02.2020 03:32 8,4 C 7,8 C 6,1 C 86 % 1010,9 hPa 0,0 l/m 0 min 0 min 0 W/m 22,5 km/h (4 Bft) 97,87 %
17.02.2020 03:34 8,4 C 7,8 C 6,7 C 86 % 1010,8 hPa 0,0 l/m 0 min 0 min 0 W/m 35,4 km/h (5 Bft) 100,00 %
17.02.2020 03:36 8,4 C 7,8 C 6,7 C 86 % 1010,8 hPa 0,0 l/m 0 min 0 min 0 W/m 29,0 km/h (5 Bft) 95,74 %
17.02.2020 03:38 8,4 C 7,8 C 6,7 C 85 % 1010,9 hPa 0,0 l/m 0 min 0 min 0 W/m 29,0 km/h (5 Bft) 100,00 %
17.02.2020 03:40 8,3 C 7,8 C 7,2 C 85 % 1011,0 hPa 0,0 l/m 0 min 0 min 0 W/m 25,7 km/h (4 Bft) 100,00 %
17.02.2020 03:42 8,3 C 7,2 C 6,7 C 85 % 1010,9 hPa 0,0 l/m 0 min 0 min 0 W/m 16,1 km/h (3 Bft) 100,00 %
17.02.2020 03:44 8,3 C 7,8 C 7,2 C 85 % 1011,0 hPa 0,0 l/m 0 min 0 min 0 W/m 32,2 km/h (5 Bft) 97,87 %
17.02.2020 03:46 8,3 C 7,8 C 7,2 C 85 % 1011,0 hPa 0,0 l/m 0 min 0 min 0 W/m 35,4 km/h (5 Bft) 97,87 %
17.02.2020 03:48 8,3 C 7,8 C 7,2 C 85 % 1011,1 hPa 0,0 l/m 0 min 0 min 0 W/m 35,4 km/h (5 Bft) 97,87 %
17.02.2020 03:50 8,3 C 7,2 C 6,7 C 85 % 1011,0 hPa 0,0 l/m 0 min 0 min 0 W/m 29,0 km/h (5 Bft) 97,87 %
17.02.2020 03:52 8,3 C 7,8 C 6,7 C 85 % 1011,1 hPa 0,0 l/m 0 min 0 min 0 W/m 29,0 km/h (5 Bft) 97,83 %
17.02.2020 03:54 8,3 C 7,2 C 6,7 C 85 % 1011,2 hPa 0,0 l/m 0 min 0 min 0 W/m 19,3 km/h (3 Bft) 97,87 %
17.02.2020 03:56 8,3 C 7,2 C 6,7 C 85 % 1011,1 hPa 0,0 l/m 0 min 0 min 0 W/m 29,0 km/h (5 Bft) 97,87 %
17.02.2020 03:58 8,3 C 7,8 C 6,7 C 84 % 1011,5 hPa 0,0 l/m 0 min 0 min 0 W/m 29,0 km/h (5 Bft) 95,74 %
17.02.2020 04:00 8,3 C 7,2 C 6,7 C 84 % 1011,3 hPa 0,0 l/m 0 min 0 min 0 W/m 22,5 km/h (4 Bft) 93,62 %
17.02.2020 04:02 8,3 C 7,2 C 6,7 C 84 % 1011,6 hPa 0,0 l/m 0 min 0 min 0 W/m 19,3 km/h (3 Bft) 100,00 %
17.02.2020 04:04 8,3 C 7,2 C 6,7 C 84 % 1011,5 hPa 0,0 l/m 0 min 0 min 0 W/m 19,3 km/h (3 Bft) 97,87 %
17.02.2020 04:06 8,3 C 7,2 C 6,7 C 84 % 1011,7 hPa 0,0 l/m 0 min 0 min 0 W/m 32,2 km/h (5 Bft) 93,62 %
17.02.2020 04:08 8,3 C 7,2 C 6,7 C 84 % 1011,8 hPa 0,0 l/m 0 min 0 min 0 W/m 35,4 km/h (5 Bft) 95,74 %
17.02.2020 04:10 8,3 C 7,2 C 6,7 C 84 % 1011,7 hPa 0,0 l/m 0 min 0 min 0 W/m 25,7 km/h (4 Bft) 97,87 %
17.02.2020 04:12 8,2 C 7,2 C 6,7 C 85 % 1011,7 hPa 0,0 l/m 0 min 0 min 0 W/m 22,5 km/h (4 Bft) 95,74 %
17.02.2020 04:14 8,2 C 7,2 C 6,7 C 85 % 1011,7 hPa 0,0 l/m 0 min 0 min 0 W/m 19,3 km/h (3 Bft) 95,65 %
17.02.2020 04:16 8,2 C 7,2 C 6,7 C 84 % 1011,7 hPa 0,0 l/m 0 min 0 min 0 W/m 29,0 km/h (5 Bft) 95,74 %
17.02.2020 04:18 8,2 C 7,2 C 6,7 C 84 % 1011,8 hPa 0,0 l/m 0 min 0 min 0 W/m 25,7 km/h (4 Bft) 95,74 %
17.02.2020 04:20 8,1 C 7,2 C 6,7 C 84 % 1011,7 hPa 0,0 l/m 0 min 0 min 0 W/m 19,3 km/h (3 Bft) 95,74 %
17.02.2020 04:22 8,1 C 7,2 C 6,7 C 84 % 1011,8 hPa 0,0 l/m 0 min 0 min 0 W/m 32,2 km/h (5 Bft) 95,74 %
17.02.2020 04:24 8,1 C 7,2 C 6,7 C 84 % 1011,8 hPa 0,0 l/m 0 min 0 min 0 W/m 22,5 km/h (4 Bft) 95,74 %
17.02.2020 04:26 8,1 C 7,2 C 6,7 C 84 % 1011,9 hPa 0,0 l/m 0 min 0 min 0 W/m 25,7 km/h (4 Bft) 91,30 %
17.02.2020 04:28 8,1 C 7,2 C 6,7 C 84 % 1012,1 hPa 0,0 l/m 0 min 0 min 0 W/m 22,5 km/h (4 Bft) 95,74 %
17.02.2020 04:30 8,1 C 7,2 C 6,7 C 84 % 1012,1 hPa 0,0 l/m 0 min 0 min 0 W/m 25,7 km/h (4 Bft) 93,62 %
17.02.2020 04:32 8,1 C 7,2 C 6,7 C 85 % 1012,1 hPa 0,0 l/m 0 min 0 min 0 W/m 25,7 km/h (4 Bft) 95,74 %
17.02.2020 04:34 8,0 C 7,2 C 6,7 C 84 % 1012,2 hPa 0,0 l/m 0 min 0 min 0 W/m 29,0 km/h (5 Bft) 95,74 %
17.02.2020 04:36 8,0 C 7,2 C 6,7 C 83 % 1012,2 hPa 0,0 l/m 0 min 0 min 0 W/m 48,3 km/h (6 Bft) 95,74 %
17.02.2020 04:38 8,0 C 7,2 C 6,7 C 83 % 1012,1 hPa 0,0 l/m 0 min 0 min 0 W/m 25,7 km/h (4 Bft) 95,65 %
17.02.2020 04:40 8,0 C 7,2 C 6,7 C 82 % 1012,2 hPa 0,0 l/m 0 min 0 min 0 W/m 29,0 km/h (5 Bft) 95,74 %
17.02.2020 04:42 8,0 C 7,2 C 6,7 C 82 % 1012,2 hPa 0,0 l/m 0 min 0 min 0 W/m 22,5 km/h (4 Bft) 97,87 %
17.02.2020 04:44 8,0 C 7,2 C 6,7 C 82 % 1012,4 hPa 0,0 l/m 0 min 0 min 0 W/m 35,4 km/h (5 Bft) 91,49 %
17.02.2020 04:46 8,0 C 7,2 C 6,7 C 82 % 1012,2 hPa 0,0 l/m 0 min 0 min 0 W/m 19,3 km/h (3 Bft) 57,45 %
17.02.2020 04:48 8,0 C 7,2 C 6,7 C 81 % 1012,1 hPa 0,0 l/m 0 min 0 min 0 W/m 29,0 km/h (5 Bft) 95,74 %
17.02.2020 04:50 7,9 C 7,2 C 6,7 C 81 % 1012,2 hPa 0,0 l/m 0 min 0 min 0 W/m 19,3 km/h (3 Bft) 93,48 %
17.02.2020 04:52 7,9 C 7,2 C 6,7 C 81 % 1012,2 hPa 0,0 l/m 0 min 0 min 0 W/m 16,1 km/h (3 Bft) 95,74 %
17.02.2020 04:54 7,9 C 7,2 C 6,7 C 82 % 1012,3 hPa 0,0 l/m 0 min 0 min 0 W/m 22,5 km/h (4 Bft) 95,74 %
17.02.2020 04:56 7,9 C 7,2 C 6,7 C 82 % 1012,4 hPa 0,0 l/m 0 min 0 min 0 W/m 29,0 km/h (5 Bft) 95,74 %
17.02.2020 04:58 7,9 C 7,2 C 6,7 C 82 % 1012,3 hPa 0,0 l/m 0 min 0 min 0 W/m 22,5 km/h (4 Bft) 95,74 %
17.02.2020 05:00 7,9 C 7,2 C 6,7 C 82 % 1012,4 hPa 0,0 l/m 0 min 0 min 0 W/m 19,3 km/h (3 Bft) 95,65 %
17.02.2020 05:02 7,9 C 7,2 C 6,7 C 82 % 1012,5 hPa 0,0 l/m 0 min 0 min 0 W/m 25,7 km/h (4 Bft) 97,87 %
17.02.2020 05:04 7,9 C 7,2 C 6,7 C 82 % 1012,4 hPa 0,0 l/m 0 min 0 min 0 W/m 29,0 km/h (5 Bft) 97,87 %
17.02.2020 05:06 7,9 C 7,2 C 6,7 C 82 % 1012,4 hPa 0,0 l/m 0 min 0 min 0 W/m 22,5 km/h (4 Bft) 95,74 %
17.02.2020 05:08 7,9 C 7,2 C 6,7 C 82 % 1012,4 hPa 0,0 l/m 0 min 0 min 0 W/m 16,1 km/h (3 Bft) 97,87 %
17.02.2020 05:10 7,8 C 7,2 C 6,7 C 82 % 1012,4 hPa 0,0 l/m 0 min 0 min 0 W/m 19,3 km/h (3 Bft) 100,00 %
17.02.2020 05:12 7,8 C 7,2 C 6,7 C 83 % 1012,4 hPa 0,0 l/m 0 min 0 min 0 W/m 22,5 km/h (4 Bft) 95,65 %
17.02.2020 05:14 7,8 C 7,2 C 6,7 C 83 % 1012,5 hPa 0,0 l/m 0 min 0 min 0 W/m 19,3 km/h (3 Bft) 100,00 %
17.02.2020 05:16 7,8 C 6,7 C 6,1 C 83 % 1012,5 hPa 0,0 l/m 0 min 0 min 0 W/m 19,3 km/h (3 Bft) 100,00 %
17.02.2020 05:18 7,8 C 7,2 C 6,7 C 83 % 1012,5 hPa 0,0 l/m 0 min 0 min 0 W/m 22,5 km/h (4 Bft) 97,87 %
17.02.2020 05:20 7,8 C 6,7 C 6,1 C 83 % 1012,6 hPa 0,0 l/m 0 min 0 min 0 W/m 12,9 km/h (3 Bft) 100,00 %
17.02.2020 05:22 7,8 C 6,7 C 6,1 C 83 % 1012,6 hPa 0,0 l/m 0 min 0 min 0 W/m 16,1 km/h (3 Bft) 100,00 %
17.02.2020 05:24 7,8 C 7,2 C 6,7 C 83 % 1012,7 hPa 0,0 l/m 0 min 0 min 0 W/m 19,3 km/h (3 Bft) 97,83 %
17.02.2020 05:26 7,8 C 7,2 C 6,7 C 83 % 1012,7 hPa 0,0 l/m 0 min 0 min 0 W/m 19,3 km/h (3 Bft) 100,00 %
17.02.2020 05:28 7,8 C 7,2 C 6,7 C 83 % 1012,7 hPa 0,0 l/m 0 min 0 min 0 W/m 32,2 km/h (5 Bft) 100,00 %
17.02.2020 05:30 7,8 C 6,7 C 6,7 C 83 % 1012,7 hPa 0,0 l/m 0 min 0 min 0 W/m 16,1 km/h (3 Bft) 100,00 %
17.02.2020 05:32 7,7 C 6,7 C 6,1 C 83 % 1012,7 hPa 0,0 l/m 0 min 0 min 0 W/m 12,9 km/h (3 Bft) 100,00 %
17.02.2020 05:34 7,7 C 6,7 C 6,1 C 84 % 1012,6 hPa 0,0 l/m 0 min 0 min 0 W/m 16,1 km/h (3 Bft) 100,00 %
17.02.2020 05:36 7,7 C 6,7 C 6,1 C 84 % 1012,7 hPa 0,0 l/m 0 min 0 min 0 W/m 29,0 km/h (5 Bft) 97,83 %
17.02.2020 05:38 7,7 C 6,7 C 6,1 C 84 % 1012,7 hPa 0,0 l/m 0 min 0 min 0 W/m 19,3 km/h (3 Bft) 100,00 %
17.02.2020 05:40 7,7 C 6,7 C 6,1 C 84 % 1012,8 hPa 0,0 l/m 0 min 0 min 0 W/m 16,1 km/h (3 Bft) 100,00 %
17.02.2020 05:42 7,7 C 6,7 C 6,1 C 84 % 1012,8 hPa 0,0 l/m 0 min 0 min 0 W/m 25,7 km/h (4 Bft) 100,00 %
17.02.2020 05:44 7,7 C 6,7 C 6,1 C 84 % 1012,8 hPa 0,0 l/m 0 min 0 min 0 W/m 19,3 km/h (3 Bft) 97,87 %
17.02.2020 05:46 7,7 C 6,7 C 6,1 C 84 % 1012,9 hPa 0,0 l/m 0 min 0 min 0 W/m 12,9 km/h (3 Bft) 97,87 %
17.02.2020 05:48 7,7 C 6,7 C 6,1 C 84 % 1012,9 hPa 0,0 l/m 0 min 0 min 0 W/m 16,1 km/h (3 Bft) 100,00 %
17.02.2020 05:50 7,7 C 6,7 C 6,1 C 84 % 1013,0 hPa 0,0 l/m 0 min 0 min 0 W/m 12,9 km/h (3 Bft) 100,00 %
17.02.2020 05:52 7,7 C 7,2 C 6,1 C 84 % 1013,0 hPa 0,0 l/m 0 min 0 min 0 W/m 22,5 km/h (4 Bft) 100,00 %
17.02.2020 05:54 7,7 C 6,7 C 6,1 C 84 % 1013,0 hPa 0,0 l/m 0 min 0 min 0 W/m 22,5 km/h (4 Bft) 100,00 %
17.02.2020 05:56 7,7 C 6,7 C 6,1 C 84 % 1012,9 hPa 0,0 l/m 0 min 0 min 0 W/m 19,3 km/h (3 Bft) 100,00 %
17.02.2020 05:58 7,6 C 7,2 C 6,1 C 84 % 1013,0 hPa 0,0 l/m 0 min 0 min 0 W/m 16,1 km/h (3 Bft) 97,83 %
17.02.2020 06:00 7,6 C 7,2 C 6,1 C 84 % 1013,0 hPa 0,0 l/m 0 min 0 min 0 W/m 22,5 km/h (4 Bft) 97,87 %
17.02.2020 06:02 7,6 C 7,2 C 6,1 C 84 % 1012,9 hPa 0,0 l/m 0 min 0 min 0 W/m 22,5 km/h (4 Bft) 100,00 %
17.02.2020 06:04 7,6 C 7,2 C 6,1 C 83 % 1012,9 hPa 0,0 l/m 0 min 0 min 0 W/m 19,3 km/h (3 Bft) 97,87 %
17.02.2020 06:06 7,6 C 7,2 C 6,7 C 83 % 1013,1 hPa 0,0 l/m 0 min 0 min 0 W/m 19,3 km/h (3 Bft) 100,00 %
17.02.2020 06:08 7,6 C 7,2 C 6,7 C 83 % 1012,9 hPa 0,0 l/m 0 min 0 min 0 W/m 19,3 km/h (3 Bft) 100,00 %
17.02.2020 06:10 7,7 C 7,2 C 6,7 C 82 % 1012,9 hPa 0,0 l/m 0 min 0 min 0 W/m 16,1 km/h (3 Bft) 100,00 %
17.02.2020 06:12 7,7 C 7,2 C 6,7 C 82 % 1012,8 hPa 0,0 l/m 0 min 0 min 0 W/m 22,5 km/h (4 Bft) 100,00 %
17.02.2020 06:14 7,7 C 6,7 C 6,7 C 82 % 1012,8 hPa 0,0 l/m 0 min 0 min 0 W/m 25,7 km/h (4 Bft) 97,87 %
17.02.2020 06:16 7,7 C 6,7 C 6,1 C 82 % 1012,8 hPa 0,0 l/m 0 min 0 min 0 W/m 19,3 km/h (3 Bft) 100,00 %
17.02.2020 06:18 7,6 C 6,7 C 6,1 C 82 % 1012,9 hPa 0,0 l/m 0 min 0 min 0 W/m 16,1 km/h (3 Bft) 100,00 %
17.02.2020 06:20 7,6 C 6,7 C 6,1 C 82 % 1012,9 hPa 0,0 l/m 0 min 0 min 0 W/m 19,3 km/h (3 Bft) 100,00 %
17.02.2020 06:22 7,6 C 6,7 C 6,1 C 82 % 1012,9 hPa 0,0 l/m 0 min 0 min 0 W/m 45,1 km/h (6 Bft) 95,65 %
17.02.2020 06:24 7,6 C 7,2 C 6,1 C 82 % 1012,9 hPa 0,0 l/m 0 min 0 min 0 W/m 16,1 km/h (3 Bft) 97,87 %
17.02.2020 06:26 7,6 C 7,2 C 6,1 C 82 % 1013,0 hPa 0,0 l/m 0 min 0 min 0 W/m 25,7 km/h (4 Bft) 97,87 %
17.02.2020 06:28 7,6 C 7,2 C 6,1 C 82 % 1012,9 hPa 0,0 l/m 0 min 0 min 0 W/m 22,5 km/h (4 Bft) 97,87 %
17.02.2020 06:30 7,6 C 6,7 C 6,1 C 82 % 1012,9 hPa 0,0 l/m 0 min 0 min 0 W/m 16,1 km/h (3 Bft) 97,87 %
17.02.2020 06:32 7,6 C 7,2 C 6,7 C 82 % 1012,8 hPa 0,0 l/m 0 min 0 min 0 W/m 25,7 km/h (4 Bft) 97,87 %
17.02.2020 06:34 7,7 C 7,2 C 6,7 C 82 % 1012,8 hPa 0,0 l/m 0 min 0 min 0 W/m 19,3 km/h (3 Bft) 97,83 %
17.02.2020 06:36 7,7 C 7,2 C 6,7 C 82 % 1012,8 hPa 0,0 l/m 0 min 0 min 0 W/m 29,0 km/h (5 Bft) 97,87 %
17.02.2020 06:38 7,7 C 7,2 C 6,7 C 81 % 1012,7 hPa 0,0 l/m 0 min 0 min 0 W/m 16,1 km/h (3 Bft) 97,87 %
17.02.2020 06:40 7,7 C 7,2 C 6,7 C 81 % 1012,8 hPa 0,0 l/m 0 min 0 min 0 W/m 16,1 km/h (3 Bft) 97,87 %
17.02.2020 06:42 7,7 C 6,7 C 6,1 C 81 % 1012,7 hPa 0,0 l/m 0 min 0 min 0 W/m 9,7 km/h (2 Bft) 97,87 %
17.02.2020 06:44 7,7 C 6,7 C 6,1 C 81 % 1012,8 hPa 0,0 l/m 0 min 0 min 0 W/m 16,1 km/h (3 Bft) 95,74 %
17.02.2020 06:46 7,7 C 6,7 C 6,1 C 81 % 1012,7 hPa 0,0 l/m 0 min 0 min 0 W/m 16,1 km/h (3 Bft) 97,83 %
17.02.2020 06:48 7,7 C 6,7 C 6,1 C 82 % 1012,8 hPa 0,0 l/m 0 min 0 min 0 W/m 16,1 km/h (3 Bft) 97,87 %
17.02.2020 06:50 7,6 C 6,7 C 6,1 C 81 % 1012,7 hPa 0,0 l/m 0 min 0 min 0 W/m 19,3 km/h (3 Bft) 97,87 %
17.02.2020 06:52 7,6 C 6,7 C 6,1 C 81 % 1012,7 hPa 0,0 l/m 0 min 0 min 0 W/m 16,1 km/h (3 Bft) 95,74 %
17.02.2020 06:54 7,6 C 6,7 C 6,1 C 81 % 1012,7 hPa 0,0 l/m 0 min 0 min 0 W/m 12,9 km/h (3 Bft) 97,87 %
17.02.2020 06:56 7,6 C 6,7 C 6,1 C 81 % 1012,7 hPa 0,0 l/m 0 min 0 min 0 W/m 16,1 km/h (3 Bft) 97,87 %
17.02.2020 06:58 7,6 C 6,7 C 6,1 C 81 % 1012,7 hPa 0,0 l/m 0 min 0 min 0 W/m 22,5 km/h (4 Bft) 97,83 %
17.02.2020 07:00 7,6 C 6,7 C 6,1 C 81 % 1012,7 hPa 0,0 l/m 0 min 0 min 0 W/m 16,1 km/h (3 Bft) 97,87 %
17.02.2020 07:02 7,6 C 6,7 C 6,1 C 81 % 1012,7 hPa 0,0 l/m 0 min 0 min 0 W/m 22,5 km/h (4 Bft) 95,74 %
17.02.2020 07:04 7,6 C 6,7 C 6,1 C 81 % 1012,6 hPa 0,0 l/m 0 min 0 min 0 W/m 19,3 km/h (3 Bft) 95,74 %
17.02.2020 07:06 7,6 C 6,7 C 6,1 C 81 % 1012,6 hPa 0,0 l/m 0 min 0 min 0 W/m 12,9 km/h (3 Bft) 97,87 %
17.02.2020 07:08 7,6 C 6,7 C 6,1 C 81 % 1012,6 hPa 0,0 l/m 0 min 0 min 0 W/m 16,1 km/h (3 Bft) 97,83 %
17.02.2020 07:10 7,6 C 6,7 C 6,1 C 81 % 1012,6 hPa 0,0 l/m 0 min 0 min 0 W/m 29,0 km/h (5 Bft) 97,87 %
17.02.2020 07:12 7,6 C 6,7 C 6,1 C 81 % 1012,7 hPa 0,0 l/m 0 min 0 min 0 W/m 16,1 km/h (3 Bft) 97,87 %
17.02.2020 07:14 7,6 C 6,7 C 6,1 C 81 % 1012,7 hPa 0,0 l/m 0 min 0 min 0 W/m 12,9 km/h (3 Bft) 100,00 %
17.02.2020 07:16 7,6 C 6,7 C 6,1 C 81 % 1012,7 hPa 0,0 l/m 0 min 0 min 0 W/m 16,1 km/h (3 Bft) 97,87 %
17.02.2020 07:18 7,6 C 6,7 C 6,1 C 81 % 1012,7 hPa 0,0 l/m 0 min 0 min 0 W/m 12,9 km/h (3 Bft) 97,87 %
17.02.2020 07:20 7,6 C 6,7 C 6,1 C 81 % 1012,6 hPa 0,0 l/m 0 min 0 min 0 W/m 22,5 km/h (4 Bft) 95,65 %
17.02.2020 07:22 7,6 C 6,7 C 6,1 C 81 % 1012,6 hPa 0,0 l/m 0 min 0 min 0 W/m 16,1 km/h (3 Bft) 97,87 %
17.02.2020 07:24 7,6 C 6,7 C 6,1 C 82 % 1012,5 hPa 0,0 l/m 0 min 0 min 0 W/m 22,5 km/h (4 Bft) 97,87 %
17.02.2020 07:26 7,6 C 6,7 C 6,1 C 82 % 1012,5 hPa 0,0 l/m 0 min 0 min 0 W/m 16,1 km/h (3 Bft) 97,87 %
17.02.2020 07:28 7,6 C 6,7 C 6,1 C 82 % 1012,7 hPa 0,0 l/m 0 min 0 min 0 W/m 19,3 km/h (3 Bft) 95,74 %
17.02.2020 07:30 7,6 C 6,7 C 6,1 C 82 % 1012,7 hPa 0,0 l/m 0 min 0 min 0 W/m 16,1 km/h (3 Bft) 93,62 %
17.02.2020 07:32 7,6 C 6,7 C 6,1 C 82 % 1012,6 hPa 0,0 l/m 0 min 0 min 0 W/m 16,1 km/h (3 Bft) 95,65 %
17.02.2020 07:34 7,6 C 6,7 C 6,1 C 82 % 1012,6 hPa 0,0 l/m 0 min 0 min 0 W/m 22,5 km/h (4 Bft) 95,74 %
17.02.2020 07:36 7,6 C 6,7 C 6,1 C 83 % 1012,7 hPa 0,0 l/m 0 min 0 min 0 W/m 19,3 km/h (3 Bft) 93,62 %
17.02.2020 07:38 7,6 C 6,7 C 6,1 C 83 % 1012,7 hPa 0,0 l/m 0 min 0 min 0 W/m 29,0 km/h (5 Bft) 95,74 %
17.02.2020 07:40 7,6 C 6,7 C 6,1 C 83 % 1012,6 hPa 0,0 l/m 0 min 0 min 0 W/m 19,3 km/h (3 Bft) 95,74 %
17.02.2020 07:42 7,6 C 6,7 C 6,1 C 83 % 1012,7 hPa 0,0 l/m 0 min 0 min 0 W/m 19,3 km/h (3 Bft) 54,35 %
17.02.2020 07:44 7,6 C 6,7 C 6,1 C 83 % 1012,6 hPa 0,0 l/m 0 min 0 min 0 W/m 25,7 km/h (4 Bft) 92,31 %
17.02.2020 07:46 7,6 C 7,2 C 6,7 C 84 % 1012,6 hPa 0,0 l/m 0 min 0 min 0 W/m 25,7 km/h (4 Bft) 95,74 %
17.02.2020 07:48 7,6 C 7,2 C 6,1 C 84 % 1012,8 hPa 0,0 l/m 0 min 0 min 0 W/m 22,5 km/h (4 Bft) 95,74 %
17.02.2020 07:50 7,6 C 6,7 C 6,1 C 84 % 1012,8 hPa 0,0 l/m 0 min 0 min 0 W/m 22,5 km/h (4 Bft) 97,87 %
17.02.2020 07:52 7,6 C 7,2 C 6,7 C 84 % 1012,8 hPa 0,0 l/m 0 min 0 min 0 W/m 35,4 km/h (5 Bft) 97,87 %
17.02.2020 07:54 7,6 C 7,2 C 6,7 C 84 % 1012,9 hPa 0,0 l/m 0 min 0 min 0 W/m 22,5 km/h (4 Bft) 95,74 %
17.02.2020 07:56 7,7 C 6,7 C 6,1 C 84 % 1012,8 hPa 0,0 l/m 0 min 0 min 0 W/m 25,7 km/h (4 Bft) 95,65 %
17.02.2020 07:58 7,6 C 7,2 C 6,7 C 84 % 1012,8 hPa 0,0 l/m 0 min 0 min 5 W/m 25,7 km/h (4 Bft) 95,74 %
17.02.2020 08:00 7,7 C 7,2 C 6,1 C 84 % 1012,9 hPa 0,0 l/m 0 min 0 min 6 W/m 16,1 km/h (3 Bft) 97,87 %
17.02.2020 08:02 7,7 C 7,2 C 6,1 C 84 % 1012,9 hPa 0,0 l/m 0 min 0 min 7 W/m 19,3 km/h (3 Bft) 95,74 %
17.02.2020 08:04 7,7 C 7,2 C 6,7 C 84 % 1013,0 hPa 0,0 l/m 0 min 0 min 7 W/m 19,3 km/h (3 Bft) 95,74 %
17.02.2020 08:06 7,7 C 7,2 C 6,1 C 84 % 1012,9 hPa 0,0 l/m 0 min 0 min 7 W/m 22,5 km/h (4 Bft) 95,74 %
17.02.2020 08:08 7,7 C 7,2 C 6,7 C 84 % 1013,0 hPa 0,0 l/m 0 min 0 min 8 W/m 25,7 km/h (4 Bft) 97,83 %
17.02.2020 08:10 7,7 C 7,2 C 6,7 C 84 % 1013,1 hPa 0,0 l/m 0 min 0 min 9 W/m 16,1 km/h (3 Bft) 97,87 %
17.02.2020 08:12 7,7 C 7,2 C 6,7 C 84 % 1013,1 hPa 0,0 l/m 0 min 0 min 10 W/m 25,7 km/h (4 Bft) 97,87 %
17.02.2020 08:14 7,7 C 7,2 C 6,7 C 84 % 1013,2 hPa 0,0 l/m 0 min 0 min 11 W/m 22,5 km/h (4 Bft) 97,87 %
17.02.2020 08:16 7,7 C 7,2 C 6,7 C 84 % 1013,1 hPa 0,0 l/m 0 min 0 min 12 W/m 29,0 km/h (5 Bft) 97,87 %
17.02.2020 08:18 7,7 C 7,2 C 6,7 C 84 % 1013,1 hPa 0,0 l/m 0 min 0 min 14 W/m 25,7 km/h (4 Bft) 95,65 %
17.02.2020 08:20 7,7 C 7,2 C 6,7 C 84 % 1013,1 hPa 0,0 l/m 0 min 0 min 16 W/m 19,3 km/h (3 Bft) 97,87 %
17.02.2020 08:22 7,7 C 7,2 C 6,7 C 84 % 1013,1 hPa 0,0 l/m 0 min 0 min 16 W/m 19,3 km/h (3 Bft) 97,87 %
17.02.2020 08:24 7,8 C 7,2 C 6,7 C 84 % 1013,1 hPa 0,0 l/m 0 min 0 min 16 W/m 35,4 km/h (5 Bft) 97,87 %
17.02.2020 08:26 7,8 C 7,2 C 6,7 C 84 % 1013,2 hPa 0,0 l/m 0 min 0 min 16 W/m 29,0 km/h (5 Bft) 100,00 %
17.02.2020 08:28 7,8 C 7,2 C 6,7 C 84 % 1013,2 hPa 0,0 l/m 0 min 0 min 16 W/m 19,3 km/h (3 Bft) 100,00 %
17.02.2020 08:30 7,8 C 7,2 C 6,7 C 84 % 1013,2 hPa 0,0 l/m 0 min 0 min 18 W/m 29,0 km/h (5 Bft) 100,00 %
17.02.2020 08:32 7,8 C 7,2 C 6,7 C 84 % 1013,2 hPa 0,0 l/m 0 min 0 min 18 W/m 19,3 km/h (3 Bft) 100,00 %
17.02.2020 08:34 7,8 C 7,2 C 6,7 C 84 % 1013,3 hPa 0,0 l/m 0 min 0 min 19 W/m 25,7 km/h (4 Bft) 100,00 %
17.02.2020 08:36 7,8 C 7,2 C 6,7 C 84 % 1013,3 hPa 0,0 l/m 0 min 0 min 21 W/m 22,5 km/h (4 Bft) 97,87 %
17.02.2020 08:38 7,8 C 7,2 C 6,7 C 84 % 1013,2 hPa 0,0 l/m 0 min 0 min 22 W/m 29,0 km/h (5 Bft) 100,00 %
17.02.2020 08:40 7,8 C 7,2 C 6,7 C 84 % 1013,1 hPa 0,0 l/m 0 min 0 min 24 W/m 22,5 km/h (4 Bft) 97,87 %
17.02.2020 08:42 7,8 C 7,2 C 6,7 C 84 % 1013,1 hPa 0,0 l/m 0 min 0 min 26 W/m 19,3 km/h (3 Bft) 100,00 %
17.02.2020 08:44 7,8 C 7,2 C 6,7 C 84 % 1013,1 hPa 0,0 l/m 0 min 0 min 28 W/m 19,3 km/h (3 Bft) 100,00 %
17.02.2020 08:46 7,8 C 7,2 C 6,7 C 84 % 1013,3 hPa 0,0 l/m 0 min 0 min 25 W/m 22,5 km/h (4 Bft) 100,00 %
17.02.2020 08:48 7,8 C 7,2 C 6,7 C 84 % 1013,3 hPa 0,0 l/m 0 min 0 min 27 W/m 25,7 km/h (4 Bft) 100,00 %
17.02.2020 08:50 7,8 C 7,2 C 6,7 C 84 % 1013,3 hPa 0,0 l/m 0 min 0 min 31 W/m 16,1 km/h (3 Bft) 97,87 %
17.02.2020 08:52 7,9 C 7,2 C 6,7 C 84 % 1013,4 hPa 0,0 l/m 0 min 0 min 30 W/m 35,4 km/h (5 Bft) 93,62 %
17.02.2020 08:54 7,9 C 7,2 C 6,7 C 84 % 1013,4 hPa 0,0 l/m 0 min 0 min 34 W/m 22,5 km/h (4 Bft) 100,00 %
17.02.2020 08:56 7,9 C 7,2 C 6,7 C 84 % 1013,4 hPa 0,0 l/m 0 min 0 min 33 W/m 29,0 km/h (5 Bft) 100,00 %
17.02.2020 08:58 7,9 C 7,2 C 6,7 C 84 % 1013,4 hPa 0,0 l/m 0 min 0 min 38 W/m 22,5 km/h (4 Bft) 100,00 %
17.02.2020 09:00 7,9 C 7,2 C 6,7 C 84 % 1013,2 hPa 0,0 l/m 0 min 0 min 45 W/m 29,0 km/h (5 Bft) 97,87 %
17.02.2020 09:02 7,9 C 7,2 C 6,7 C 84 % 1013,2 hPa 0,0 l/m 0 min 0 min 48 W/m 25,7 km/h (4 Bft) 95,74 %
17.02.2020 09:04 7,9 C 7,8 C 6,7 C 84 % 1013,3 hPa 0,0 l/m 0 min 0 min 47 W/m 29,0 km/h (5 Bft) 93,48 %
17.02.2020 09:06 7,9 C 7,8 C 6,7 C 84 % 1013,3 hPa 0,0 l/m 0 min 0 min 46 W/m 16,1 km/h (3 Bft) 97,87 %
17.02.2020 09:08 7,9 C 7,8 C 6,7 C 84 % 1013,3 hPa 0,0 l/m 0 min 0 min 48 W/m 29,0 km/h (5 Bft) 95,74 %
17.02.2020 09:10 7,9 C 7,8 C 6,7 C 84 % 1013,4 hPa 0,0 l/m 0 min 0 min 51 W/m 16,1 km/h (3 Bft) 97,87 %
17.02.2020 09:12 8,0 C 7,8 C 7,2 C 83 % 1013,4 hPa 0,0 l/m 0 min 0 min 52 W/m 22,5 km/h (4 Bft) 50,00 %
17.02.2020 09:14 8,0 C 7,8 C 7,2 C 83 % 1013,4 hPa 0,0 l/m 0 min 0 min 57 W/m 22,5 km/h (4 Bft) 97,87 %
17.02.2020 09:16 8,1 C 7,8 C 7,2 C 83 % 1013,4 hPa 0,0 l/m 0 min 0 min 59 W/m 19,3 km/h (3 Bft) 97,83 %
17.02.2020 09:18 8,1 C 7,8 C 7,2 C 83 % 1013,4 hPa 0,0 l/m 0 min 0 min 60 W/m 32,2 km/h (5 Bft) 97,87 %
17.02.2020 09:20 8,1 C 7,8 C 7,2 C 83 % 1013,4 hPa 0,0 l/m 0 min 0 min 63 W/m 29,0 km/h (5 Bft) 97,87 %
17.02.2020 09:22 8,1 C 7,8 C 7,2 C 83 % 1013,5 hPa 0,0 l/m 0 min 0 min 63 W/m 22,5 km/h (4 Bft) 97,87 %
17.02.2020 09:24 8,1 C 7,8 C 7,2 C 83 % 1013,5 hPa 0,0 l/m 0 min 0 min 58 W/m 35,4 km/h (5 Bft) 97,87 %
17.02.2020 09:26 8,1 C 7,8 C 7,2 C 83 % 1013,6 hPa 0,0 l/m 0 min 0 min 56 W/m 32,2 km/h (5 Bft) 97,87 %
17.02.2020 09:28 8,2 C 7,8 C 7,2 C 83 % 1013,5 hPa 0,0 l/m 0 min 0 min 62 W/m 32,2 km/h (5 Bft) 97,83 %
17.02.2020 09:30 8,2 C 7,8 C 7,2 C 83 % 1013,5 hPa 0,0 l/m 0 min 0 min 69 W/m 22,5 km/h (4 Bft) 97,87 %
17.02.2020 09:32 8,2 C 7,8 C 7,2 C 82 % 1013,4 hPa 0,0 l/m 0 min 0 min 80 W/m 16,1 km/h (3 Bft) 93,62 %
17.02.2020 09:34 8,2 C 7,8 C 7,2 C 82 % 1013,5 hPa 0,0 l/m 0 min 0 min 94 W/m 19,3 km/h (3 Bft) 97,87 %
17.02.2020 09:36 8,2 C 7,8 C 7,2 C 83 % 1013,4 hPa 0,0 l/m 0 min 0 min 99 W/m 35,4 km/h (5 Bft) 97,87 %
17.02.2020 09:38 8,2 C 8,3 C 7,2 C 82 % 1013,5 hPa 0,0 l/m 0 min 0 min 96 W/m 38,6 km/h (5 Bft) 95,74 %
17.02.2020 09:40 8,3 C 8,3 C 7,8 C 82 % 1013,4 hPa 0,0 l/m 0 min 0 min 100 W/m 38,6 km/h (5 Bft) 95,65 %
17.02.2020 09:42 8,3 C 8,3 C 7,8 C 82 % 1013,5 hPa 0,0 l/m 0 min 0 min 105 W/m 29,0 km/h (5 Bft) 95,74 %
17.02.2020 09:44 8,3 C 8,3 C 7,8 C 82 % 1013,6 hPa 0,0 l/m 0 min 0 min 87 W/m 19,3 km/h (3 Bft) 95,74 %
17.02.2020 09:46 8,4 C 8,3 C 7,8 C 82 % 1013,5 hPa 0,0 l/m 0 min 0 min 91 W/m 22,5 km/h (4 Bft) 95,74 %
17.02.2020 09:48 8,4 C 8,3 C 7,8 C 82 % 1013,4 hPa 0,0 l/m 0 min 0 min 88 W/m 32,2 km/h (5 Bft) 95,74 %
17.02.2020 09:50 8,4 C 8,3 C 7,8 C 82 % 1013,4 hPa 0,0 l/m 0 min 0 min 89 W/m 35,4 km/h (5 Bft) 97,87 %
17.02.2020 09:52 8,4 C 8,3 C 7,8 C 81 % 1013,4 hPa 0,0 l/m 0 min 0 min 108 W/m 32,2 km/h (5 Bft) 97,83 %
17.02.2020 09:54 8,4 C 8,3 C 7,8 C 81 % 1013,4 hPa 0,0 l/m 0 min 0 min 114 W/m 25,7 km/h (4 Bft) 97,87 %
17.02.2020 09:56 8,5 C 8,3 C 7,8 C 81 % 1013,4 hPa 0,0 l/m 0 min 0 min 107 W/m 25,7 km/h (4 Bft) 95,74 %
17.02.2020 09:58 8,5 C 8,3 C 7,8 C 81 % 1013,4 hPa 0,0 l/m 0 min 0 min 93 W/m 22,5 km/h (4 Bft) 95,74 %
17.02.2020 10:00 8,6 C 8,3 C 7,8 C 81 % 1013,4 hPa 0,0 l/m 0 min 0 min 83 W/m 25,7 km/h (4 Bft) 97,87 %
17.02.2020 10:02 8,5 C 8,3 C 7,8 C 81 % 1013,4 hPa 0,0 l/m 0 min 0 min 60 W/m 19,3 km/h (3 Bft) 97,87 %
17.02.2020 10:04 8,5 C 7,8 C 7,2 C 81 % 1013,4 hPa 0,0 l/m 0 min 0 min 45 W/m 25,7 km/h (4 Bft) 95,65 %
17.02.2020 10:06 8,5 C 7,8 C 7,2 C 81 % 1013,3 hPa 0,0 l/m 0 min 0 min 53 W/m 32,2 km/h (5 Bft) 97,87 %
17.02.2020 10:08 8,5 C 8,3 C 7,2 C 81 % 1013,4 hPa 0,0 l/m 0 min 0 min 56 W/m 29,0 km/h (5 Bft) 95,74 %
17.02.2020 10:10 8,5 C 8,3 C 7,2 C 81 % 1013,3 hPa 0,0 l/m 0 min 0 min 67 W/m 38,6 km/h (5 Bft) 95,74 %
17.02.2020 10:12 8,5 C 8,3 C 7,2 C 81 % 1013,4 hPa 0,0 l/m 0 min 0 min 75 W/m 19,3 km/h (3 Bft) 95,74 %
17.02.2020 10:14 8,5 C 8,3 C 7,2 C 81 % 1013,3 hPa 0,0 l/m 0 min 0 min 65 W/m 25,7 km/h (4 Bft) 97,83 %
17.02.2020 10:16 8,5 C 7,8 C 7,2 C 81 % 1013,3 hPa 0,0 l/m 0 min 0 min 49 W/m 25,7 km/h (4 Bft) 95,74 %
17.02.2020 10:18 8,5 C 7,8 C 7,2 C 81 % 1013,3 hPa 0,0 l/m 0 min 0 min 40 W/m 29,0 km/h (5 Bft) 97,87 %
17.02.2020 10:20 8,5 C 8,9 C 7,2 C 81 % 1013,3 hPa 0,0 l/m 0 min 0 min 46 W/m 25,7 km/h (4 Bft) 97,87 %
17.02.2020 10:22 8,5 C 9,4 C 7,2 C 81 % 1013,3 hPa 0,0 l/m 0 min 0 min 113 W/m 35,4 km/h (5 Bft) 97,87 %
17.02.2020 10:24 8,5 C 9,4 C 7,2 C 81 % 1013,3 hPa 0,0 l/m 2 min 0 min 219 W/m 29,0 km/h (5 Bft) 97,87 %
17.02.2020 10:26 8,6 C 10,0 C 7,8 C 81 % 1013,3 hPa 0,0 l/m 0 min 0 min 162 W/m 29,0 km/h (5 Bft) 97,83 %
17.02.2020 10:28 8,6 C 11,1 C 7,8 C 81 % 1013,3 hPa 0,0 l/m 2 min 0 min 308 W/m 22,5 km/h (4 Bft) 97,87 %
17.02.2020 10:30 8,7 C 12,2 C 7,8 C 81 % 1013,4 hPa 0,0 l/m 2 min 0 min 328 W/m 25,7 km/h (4 Bft) 100,00 %
17.02.2020 10:32 8,8 C 12,2 C 8,3 C 81 % 1013,4 hPa 0,0 l/m 2 min 0 min 353 W/m 22,5 km/h (4 Bft) 97,87 %
17.02.2020 10:34 8,8 C 12,8 C 8,3 C 81 % 1013,4 hPa 0,0 l/m 2 min 0 min 358 W/m 29,0 km/h (5 Bft) 100,00 %
17.02.2020 10:36 8,9 C 12,2 C 8,3 C 80 % 1013,4 hPa 0,0 l/m 2 min 0 min 355 W/m 38,6 km/h (5 Bft) 97,87 %
17.02.2020 10:38 9,1 C 12,8 C 8,3 C 80 % 1013,4 hPa 0,0 l/m 2 min 0 min 357 W/m 22,5 km/h (4 Bft) 100,00 %
17.02.2020 10:40 9,2 C 12,2 C 8,3 C 79 % 1013,4 hPa 0,0 l/m 2 min 0 min 360 W/m 29,0 km/h (5 Bft) 100,00 %
17.02.2020 10:42 9,3 C 12,8 C 8,3 C 79 % 1013,4 hPa 0,0 l/m 2 min 0 min 365 W/m 41,8 km/h (6 Bft) 100,00 %
17.02.2020 10:44 9,3 C 12,2 C 8,3 C 78 % 1013,4 hPa 0,0 l/m 2 min 0 min 368 W/m 41,8 km/h (6 Bft) 100,00 %
17.02.2020 10:46 9,4 C 12,2 C 8,3 C 78 % 1013,5 hPa 0,0 l/m 2 min 0 min 372 W/m 29,0 km/h (5 Bft) 97,87 %
17.02.2020 10:48 9,5 C 12,2 C 8,9 C 78 % 1013,5 hPa 0,0 l/m 2 min 0 min 378 W/m 35,4 km/h (5 Bft) 97,87 %
17.02.2020 10:50 9,6 C 12,8 C 8,9 C 78 % 1013,5 hPa 0,0 l/m 2 min 0 min 381 W/m 38,6 km/h (5 Bft) 97,83 %
17.02.2020 10:52 9,6 C 12,2 C 8,9 C 77 % 1013,5 hPa 0,0 l/m 2 min 0 min 385 W/m 38,6 km/h (5 Bft) 97,87 %
17.02.2020 10:54 9,7 C 12,8 C 8,9 C 77 % 1013,5 hPa 0,0 l/m 2 min 0 min 397 W/m 41,8 km/h (6 Bft) 97,87 %
17.02.2020 10:56 9,7 C 13,3 C 8,9 C 77 % 1013,6 hPa 0,0 l/m 2 min 0 min 399 W/m 25,7 km/h (4 Bft) 97,87 %
17.02.2020 10:58 9,8 C 13,3 C 8,9 C 78 % 1013,5 hPa 0,0 l/m 2 min 0 min 399 W/m 38,6 km/h (5 Bft) 95,74 %
17.02.2020 11:00 9,9 C 13,3 C 8,9 C 77 % 1013,6 hPa 0,0 l/m 2 min 0 min 397 W/m 29,0 km/h (5 Bft) 97,87 %
17.02.2020 11:02 9,9 C 13,3 C 8,9 C 77 % 1013,5 hPa 0,0 l/m 2 min 0 min 406 W/m 25,7 km/h (4 Bft) 97,83 %
17.02.2020 11:04 9,9 C 12,8 C 8,9 C 76 % 1013,4 hPa 0,0 l/m 2 min 0 min 407 W/m 41,8 km/h (6 Bft) 93,62 %
17.02.2020 11:06 10,0 C 12,8 C 8,9 C 76 % 1013,4 hPa 0,0 l/m 2 min 0 min 430 W/m 22,5 km/h (4 Bft) 97,87 %
17.02.2020 11:08 10,1 C 13,3 C 9,4 C 77 % 1013,4 hPa 0,0 l/m 2 min 0 min 450 W/m 29,0 km/h (5 Bft) 97,87 %
17.02.2020 11:10 10,1 C 13,3 C 9,4 C 77 % 1013,4 hPa 0,0 l/m 2 min 0 min 414 W/m 29,0 km/h (5 Bft) 97,87 %
17.02.2020 11:12 10,2 C 13,3 C 9,4 C 76 % 1013,3 hPa 0,0 l/m 2 min 0 min 398 W/m 25,7 km/h (4 Bft) 97,83 %
17.02.2020 11:14 10,3 C 12,2 C 9,4 C 75 % 1013,5 hPa 0,0 l/m 2 min 0 min 433 W/m 29,0 km/h (5 Bft) 97,87 %
17.02.2020 11:16 10,3 C 12,2 C 9,4 C 75 % 1013,4 hPa 0,0 l/m 2 min 0 min 435 W/m 41,8 km/h (6 Bft) 97,87 %
17.02.2020 11:18 10,4 C 12,8 C 9,4 C 75 % 1013,4 hPa 0,0 l/m 2 min 0 min 434 W/m 32,2 km/h (5 Bft) 95,74 %
17.02.2020 11:20 10,4 C 12,8 C 9,4 C 75 % 1013,6 hPa 0,0 l/m 2 min 0 min 438 W/m 29,0 km/h (5 Bft) 97,87 %
17.02.2020 11:22 10,4 C 12,8 C 9,4 C 74 % 1013,5 hPa 0,0 l/m 2 min 0 min 437 W/m 38,6 km/h (5 Bft) 97,87 %
17.02.2020 11:24 10,5 C 12,8 C 9,4 C 74 % 1013,6 hPa 0,0 l/m 2 min 0 min 442 W/m 45,1 km/h (6 Bft) 97,83 %
17.02.2020 11:26 10,5 C 12,8 C 9,4 C 73 % 1013,4 hPa 0,0 l/m 2 min 0 min 457 W/m 48,3 km/h (6 Bft) 97,87 %
17.02.2020 11:28 10,4 C 13,3 C 9,4 C 73 % 1013,4 hPa 0,0 l/m 2 min 0 min 444 W/m 38,6 km/h (5 Bft) 95,74 %
17.02.2020 11:30 10,5 C 12,8 C 9,4 C 73 % 1013,4 hPa 0,0 l/m 2 min 0 min 437 W/m 35,4 km/h (5 Bft) 100,00 %
17.02.2020 11:32 10,5 C 12,8 C 9,4 C 73 % 1013,3 hPa 0,0 l/m 2 min 0 min 456 W/m 35,4 km/h (5 Bft) 100,00 %
17.02.2020 11:34 10,6 C 13,3 C 9,4 C 73 % 1013,4 hPa 0,0 l/m 2 min 0 min 457 W/m 29,0 km/h (5 Bft) 97,87 %
17.02.2020 11:36 10,6 C 13,3 C 9,4 C 74 % 1013,3 hPa 0,0 l/m 2 min 0 min 460 W/m 38,6 km/h (5 Bft) 97,83 %
17.02.2020 11:38 10,7 C 13,9 C 9,4 C 73 % 1013,2 hPa 0,0 l/m 2 min 0 min 458 W/m 25,7 km/h (4 Bft) 100,00 %
17.02.2020 11:40 10,7 C 13,9 C 10,0 C 73 % 1013,2 hPa 0,0 l/m 2 min 0 min 458 W/m 38,6 km/h (5 Bft) 100,00 %
17.02.2020 11:42 10,8 C 13,9 C 10,0 C 72 % 1013,2 hPa 0,0 l/m 2 min 0 min 463 W/m 35,4 km/h (5 Bft) 100,00 %
17.02.2020 11:44 10,8 C 13,9 C 10,0 C 71 % 1013,1 hPa 0,0 l/m 2 min 0 min 463 W/m 45,1 km/h (6 Bft) 95,74 %
17.02.2020 11:46 10,8 C 14,4 C 10,0 C 71 % 1013,4 hPa 0,0 l/m 2 min 0 min 464 W/m 32,2 km/h (5 Bft) 97,87 %
17.02.2020 11:48 10,8 C 14,4 C 10,0 C 71 % 1013,2 hPa 0,0 l/m 2 min 0 min 469 W/m 25,7 km/h (4 Bft) 100,00 %
17.02.2020 11:50 10,9 C 15,0 C 10,0 C 72 % 1013,2 hPa 0,0 l/m 2 min 0 min 469 W/m 35,4 km/h (5 Bft) 100,00 %
17.02.2020 11:52 11,0 C 15,0 C 10,0 C 72 % 1013,3 hPa 0,0 l/m 2 min 0 min 469 W/m 25,7 km/h (4 Bft) 100,00 %
17.02.2020 11:54 11,0 C 13,9 C 10,0 C 70 % 1013,2 hPa 0,0 l/m 2 min 0 min 468 W/m 35,4 km/h (5 Bft) 100,00 %
17.02.2020 11:56 11,1 C 13,9 C 10,0 C 69 % 1013,4 hPa 0,0 l/m 2 min 0 min 474 W/m 51,5 km/h (7 Bft) 100,00 %
17.02.2020 11:58 11,1 C 14,4 C 10,0 C 69 % 1013,2 hPa 0,0 l/m 2 min 0 min 475 W/m 35,4 km/h (5 Bft) 97,87 %
17.02.2020 12:00 11,1 C 15,0 C 10,0 C 70 % 1013,3 hPa 0,0 l/m 2 min 0 min 479 W/m 22,5 km/h (4 Bft) 97,83 %
17.02.2020 12:02 11,2 C 15,0 C 10,0 C 70 % 1013,3 hPa 0,0 l/m 2 min 0 min 489 W/m 19,3 km/h (3 Bft) 97,87 %
17.02.2020 12:04 11,2 C 15,6 C 10,6 C 70 % 1013,2 hPa 0,0 l/m 2 min 0 min 512 W/m 19,3 km/h (3 Bft) 97,87 %
17.02.2020 12:08 11,4 C 15,6 C 10,6 C 69 % 1013,4 hPa 0,0 l/m 4 min 0 min 519 W/m 22,5 km/h (4 Bft) 97,87 %
17.02.2020 12:10 11,4 C 15,6 C 10,6 C 69 % 1013,3 hPa 0,0 l/m 2 min 0 min 517 W/m 38,6 km/h (5 Bft) 95,74 %
17.02.2020 12:12 11,4 C 15,6 C 10,6 C 68 % 1013,4 hPa 0,0 l/m 2 min 0 min 559 W/m 22,5 km/h (4 Bft) 97,83 %
17.02.2020 12:14 11,5 C 14,4 C 10,6 C 68 % 1013,2 hPa 0,0 l/m 2 min 0 min 580 W/m 35,4 km/h (5 Bft) 95,74 %
17.02.2020 12:16 11,5 C 15,0 C 10,6 C 67 % 1013,2 hPa 0,0 l/m 2 min 0 min 564 W/m 35,4 km/h (5 Bft) 97,87 %
17.02.2020 12:18 11,6 C 15,0 C 10,6 C 68 % 1013,2 hPa 0,0 l/m 2 min 0 min 557 W/m 38,6 km/h (5 Bft) 97,87 %
17.02.2020 12:20 11,6 C 15,0 C 10,6 C 68 % 1013,1 hPa 0,0 l/m 2 min 0 min 588 W/m 25,7 km/h (4 Bft) 97,87 %
17.02.2020 12:22 11,6 C 15,6 C 11,1 C 69 % 1013,1 hPa 0,0 l/m 2 min 0 min 588 W/m 25,7 km/h (4 Bft) 95,74 %
17.02.2020 12:24 11,6 C 14,4 C 11,1 C 69 % 1013,2 hPa 0,0 l/m 2 min 0 min 545 W/m 32,2 km/h (5 Bft) 97,83 %
17.02.2020 12:26 11,6 C 13,9 C 10,6 C 68 % 1013,1 hPa 0,0 l/m 2 min 0 min 533 W/m 38,6 km/h (5 Bft) 97,87 %
17.02.2020 12:28 11,7 C 14,4 C 10,6 C 68 % 1013,2 hPa 0,0 l/m 2 min 0 min 260 W/m 32,2 km/h (5 Bft) 97,87 %
17.02.2020 12:30 11,7 C 14,4 C 10,6 C 67 % 1013,3 hPa 0,0 l/m 2 min 0 min 538 W/m 22,5 km/h (4 Bft) 97,87 %
17.02.2020 12:32 11,6 C 13,9 C 10,6 C 67 % 1013,2 hPa 0,0 l/m 2 min 0 min 547 W/m 41,8 km/h (6 Bft) 95,74 %
17.02.2020 12:34 11,6 C 13,9 C 11,1 C 67 % 1013,1 hPa 0,0 l/m 2 min 0 min 520 W/m 48,3 km/h (6 Bft) 97,83 %
17.02.2020 12:36 11,6 C 12,2 C 11,1 C 67 % 1013,2 hPa 0,0 l/m 2 min 0 min 422 W/m 38,6 km/h (5 Bft) 100,00 %
17.02.2020 12:38 11,5 C 11,7 C 10,6 C 68 % 1013,2 hPa 0,0 l/m 0 min 0 min 174 W/m 32,2 km/h (5 Bft) 100,00 %
17.02.2020 12:40 11,5 C 11,7 C 10,6 C 69 % 1013,2 hPa 0,0 l/m 0 min 0 min 133 W/m 32,2 km/h (5 Bft) 97,87 %
17.02.2020 12:42 11,4 C 12,2 C 11,1 C 67 % 1013,1 hPa 0,0 l/m 0 min 0 min 159 W/m 35,4 km/h (5 Bft) 93,62 %
17.02.2020 12:44 11,3 C 12,2 C 11,7 C 67 % 1013,1 hPa 0,0 l/m 0 min 0 min 201 W/m 45,1 km/h (6 Bft) 100,00 %
17.02.2020 12:46 11,3 C 12,8 C 12,2 C 68 % 1013,0 hPa 0,0 l/m 2 min 0 min 442 W/m 41,8 km/h (6 Bft) 100,00 %
17.02.2020 12:48 11,3 C 13,3 C 12,2 C 68 % 1013,0 hPa 0,0 l/m 2 min 0 min 573 W/m 38,6 km/h (5 Bft) 97,87 %
17.02.2020 12:50 11,3 C 12,2 C 12,2 C 69 % 1013,0 hPa 0,0 l/m 2 min 0 min 530 W/m 41,8 km/h (6 Bft) 100,00 %
17.02.2020 12:52 11,3 C 12,2 C 12,2 C 69 % 1013,0 hPa 0,0 l/m 0 min 0 min 160 W/m 48,3 km/h (6 Bft) 100,00 %
17.02.2020 12:54 11,2 C 11,7 C 11,1 C 69 % 1013,0 hPa 0,0 l/m 0 min 0 min 162 W/m 45,1 km/h (6 Bft) 100,00 %
17.02.2020 12:56 11,2 C 11,7 C 11,1 C 69 % 1013,1 hPa 0,0 l/m 0 min 0 min 156 W/m 45,1 km/h (6 Bft) 100,00 %
17.02.2020 12:58 11,2 C 11,7 C 11,7 C 69 % 1013,0 hPa 0,0 l/m 0 min 0 min 156 W/m 25,7 km/h (4 Bft) 100,00 %
17.02.2020 13:00 11,1 C 11,7 C 11,7 C 70 % 1013,0 hPa 0,0 l/m 2 min 0 min 493 W/m 29,0 km/h (5 Bft) 100,00 %
17.02.2020 13:02 11,2 C 13,9 C 12,8 C 70 % 1013,0 hPa 0,0 l/m 2 min 0 min 559 W/m 41,8 km/h (6 Bft) 100,00 %
17.02.2020 13:04 11,2 C 12,8 C 12,8 C 69 % 1013,0 hPa 0,0 l/m 2 min 0 min 548 W/m 48,3 km/h (6 Bft) 100,00 %
17.02.2020 13:06 11,2 C 11,7 C 11,7 C 68 % 1013,0 hPa 0,0 l/m 2 min 0 min 339 W/m 45,1 km/h (6 Bft) 100,00 %
17.02.2020 13:08 11,2 C 11,7 C 11,1 C 68 % 1012,9 hPa 0,0 l/m 0 min 0 min 125 W/m 38,6 km/h (5 Bft) 100,00 %
17.02.2020 13:10 11,1 C 11,7 C 11,1 C 68 % 1013,0 hPa 0,0 l/m 0 min 0 min 123 W/m 57,9 km/h (7 Bft) 97,83 %
17.02.2020 13:12 11,1 C 11,1 C 10,6 C 68 % 1013,0 hPa 0,0 l/m 0 min 0 min 100 W/m 25,7 km/h (4 Bft) 100,00 %
17.02.2020 13:14 11,1 C 12,8 C 11,1 C 69 % 1012,9 hPa 0,0 l/m 2 min 0 min 326 W/m 25,7 km/h (4 Bft) 100,00 %
17.02.2020 13:16 11,1 C 13,3 C 11,7 C 69 % 1012,9 hPa 0,0 l/m 2 min 0 min 540 W/m 35,4 km/h (5 Bft) 100,00 %
17.02.2020 13:18 11,2 C 13,3 C 11,1 C 69 % 1013,0 hPa 0,0 l/m 0 min 0 min 217 W/m 35,4 km/h (5 Bft) 100,00 %
17.02.2020 13:20 11,2 C 14,4 C 11,1 C 70 % 1012,9 hPa 0,0 l/m 0 min 0 min 178 W/m 25,7 km/h (4 Bft) 95,74 %
17.02.2020 13:22 11,3 C 13,9 C 11,1 C 70 % 1013,0 hPa 0,0 l/m 2 min 0 min 585 W/m 41,8 km/h (6 Bft) 98,28 %
17.02.2020 13:24 11,4 C 12,8 C 11,1 C 69 % 1012,8 hPa 0,0 l/m 2 min 0 min 252 W/m 32,2 km/h (5 Bft) 95,74 %
17.02.2020 13:26 11,4 C 12,2 C 10,6 C 69 % 1012,9 hPa 0,0 l/m 0 min 0 min 185 W/m 29,0 km/h (5 Bft) 97,14 %
17.02.2020 13:28 11,4 C 11,7 C 10,6 C 69 % 1012,9 hPa 0,0 l/m 0 min 0 min 195 W/m 29,0 km/h (5 Bft) 94,92 %
17.02.2020 13:30 11,4 C 13,9 C 11,1 C 69 % 1012,8 hPa 0,0 l/m 2 min 0 min 221 W/m 16,1 km/h (3 Bft) 97,87 %
17.02.2020 13:32 11,4 C 14,4 C 11,1 C 68 % 1012,9 hPa 0,0 l/m 2 min 0 min 590 W/m 38,6 km/h (5 Bft) 97,87 %
17.02.2020 13:34 11,5 C 13,3 C 11,1 C 68 % 1012,8 hPa 0,0 l/m 2 min 0 min 475 W/m 41,8 km/h (6 Bft) 97,14 %
17.02.2020 13:36 11,6 C 12,2 C 11,1 C 69 % 1012,7 hPa 0,0 l/m 2 min 0 min 226 W/m 41,8 km/h (6 Bft) 95,65 %
17.02.2020 13:38 11,6 C 11,7 C 11,1 C 69 % 1012,8 hPa 0,0 l/m 0 min 0 min 160 W/m 29,0 km/h (5 Bft) 94,92 %
17.02.2020 13:40 11,6 C 11,7 C 10,6 C 69 % 1012,8 hPa 0,0 l/m 0 min 0 min 171 W/m 25,7 km/h (4 Bft) 95,74 %
17.02.2020 13:42 11,6 C 12,2 C 10,6 C 69 % 1012,7 hPa 0,0 l/m 2 min 0 min 237 W/m 32,2 km/h (5 Bft) 91,43 %
17.02.2020 13:44 11,5 C 12,2 C 10,6 C 69 % 1012,7 hPa 0,0 l/m 0 min 0 min 182 W/m 22,5 km/h (4 Bft) 94,92 %
17.02.2020 13:46 11,5 C 12,2 C 11,1 C 70 % 1012,8 hPa 0,0 l/m 0 min 0 min 183 W/m 35,4 km/h (5 Bft) 94,29 %
17.02.2020 13:48 11,5 C 11,7 C 11,1 C 70 % 1012,7 hPa 0,0 l/m 0 min 0 min 180 W/m 29,0 km/h (5 Bft) 94,83 %
17.02.2020 13:50 11,4 C 11,7 C 10,6 C 69 % 1012,6 hPa 0,0 l/m 2 min 0 min 214 W/m 38,6 km/h (5 Bft) 95,74 %
17.02.2020 13:52 11,4 C 11,7 C 10,6 C 69 % 1012,7 hPa 0,0 l/m 0 min 0 min 211 W/m 25,7 km/h (4 Bft) 93,62 %
17.02.2020 13:54 11,4 C 11,7 C 10,6 C 70 % 1012,7 hPa 0,0 l/m 0 min 0 min 193 W/m 41,8 km/h (6 Bft) 97,14 %
17.02.2020 13:56 11,4 C 11,7 C 10,6 C 69 % 1012,6 hPa 0,0 l/m 0 min 0 min 201 W/m 25,7 km/h (4 Bft) 94,83 %
17.02.2020 13:58 11,4 C 11,1 C 10,6 C 70 % 1012,6 hPa 0,0 l/m 0 min 0 min 146 W/m 29,0 km/h (5 Bft) 91,49 %
17.02.2020 14:00 11,3 C 11,1 C 10,6 C 70 % 1012,5 hPa 0,0 l/m 0 min 0 min 125 W/m 32,2 km/h (5 Bft) 95,74 %
17.02.2020 14:02 11,3 C 10,6 C 10,6 C 69 % 1012,6 hPa 0,0 l/m 0 min 0 min 123 W/m 38,6 km/h (5 Bft) 97,14 %
17.02.2020 14:04 11,2 C 10,6 C 10,0 C 69 % 1012,6 hPa 0,0 l/m 0 min 0 min 99 W/m 32,2 km/h (5 Bft) 94,92 %
17.02.2020 14:06 11,2 C 10,6 C 10,0 C 69 % 1012,5 hPa 0,0 l/m 0 min 0 min 109 W/m 38,6 km/h (5 Bft) 95,74 %
17.02.2020 14:08 11,1 C 10,6 C 10,0 C 70 % 1012,5 hPa 0,0 l/m 0 min 0 min 124 W/m 19,3 km/h (3 Bft) 95,65 %
17.02.2020 14:10 11,1 C 10,6 C 10,6 C 71 % 1012,4 hPa 0,0 l/m 0 min 0 min 144 W/m 19,3 km/h (3 Bft) 94,44 %
17.02.2020 14:12 11,1 C 10,6 C 10,6 C 71 % 1012,4 hPa 0,0 l/m 0 min 2 min 159 W/m 29,0 km/h (5 Bft) 95,65 %
17.02.2020 14:14 11,1 C 10,6 C 10,0 C 71 % 1012,4 hPa 0,0 l/m 0 min 0 min 152 W/m 22,5 km/h (4 Bft) 96,61 %
17.02.2020 14:16 11,1 C 11,1 C 10,0 C 71 % 1012,4 hPa 0,0 l/m 0 min 0 min 128 W/m 29,0 km/h (5 Bft) 94,29 %
17.02.2020 14:18 11,1 C 13,3 C 10,6 C 71 % 1012,4 hPa 0,0 l/m 2 min 0 min 339 W/m 38,6 km/h (5 Bft) 93,62 %
17.02.2020 14:20 11,1 C 13,3 C 10,6 C 70 % 1012,3 hPa 0,0 l/m 2 min 0 min 515 W/m 35,4 km/h (5 Bft) 96,55 %
17.02.2020 14:22 11,2 C 14,4 C 11,1 C 71 % 1012,3 hPa 0,0 l/m 2 min 0 min 480 W/m 32,2 km/h (5 Bft) 97,87 %
17.02.2020 14:24 11,3 C 14,4 C 11,1 C 70 % 1012,3 hPa 0,0 l/m 2 min 0 min 560 W/m 38,6 km/h (5 Bft) 93,62 %
17.02.2020 14:26 11,4 C 14,4 C 11,1 C 69 % 1012,3 hPa 0,0 l/m 2 min 0 min 495 W/m 45,1 km/h (6 Bft) 95,74 %
17.02.2020 14:28 11,5 C 14,4 C 11,1 C 69 % 1012,3 hPa 0,0 l/m 2 min 0 min 504 W/m 38,6 km/h (5 Bft) 95,74 %
17.02.2020 14:30 11,6 C 13,9 C 11,1 C 69 % 1012,3 hPa 0,0 l/m 2 min 0 min 473 W/m 38,6 km/h (5 Bft) 93,62 %
17.02.2020 14:32 11,7 C 13,9 C 11,1 C 68 % 1012,2 hPa 0,0 l/m 2 min 0 min 418 W/m 35,4 km/h (5 Bft) 95,65 %
17.02.2020 14:34 11,7 C 13,3 C 10,6 C 68 % 1012,1 hPa 0,0 l/m 2 min 0 min 343 W/m 35,4 km/h (5 Bft) 94,44 %
17.02.2020 14:36 11,7 C 11,7 C 10,6 C 68 % 1012,2 hPa 0,0 l/m 0 min 0 min 108 W/m 35,4 km/h (5 Bft) 95,65 %
17.02.2020 14:38 11,6 C 11,1 C 10,6 C 67 % 1012,2 hPa 0,0 l/m 0 min 0 min 91 W/m 45,1 km/h (6 Bft) 98,31 %
17.02.2020 14:40 11,6 C 10,0 C 10,0 C 68 % 1012,3 hPa 0,0 l/m 0 min 2 min 99 W/m 35,4 km/h (5 Bft) 97,87 %
17.02.2020 14:42 11,4 C 8,3 C 8,3 C 70 % 1012,6 hPa 0,0 l/m 0 min 2 min 105 W/m 57,9 km/h (7 Bft) 97,87 %
17.02.2020 14:44 11,3 C 7,2 C 7,8 C 71 % 1012,5 hPa 0,0 l/m 0 min 2 min 74 W/m 41,8 km/h (6 Bft) 94,29 %
17.02.2020 14:46 11,1 C 6,7 C 6,7 C 73 % 1012,5 hPa 0,0 l/m 0 min 2 min 36 W/m 32,2 km/h (5 Bft) 96,55 %
17.02.2020 14:48 10,8 C 6,1 C 6,1 C 74 % 1012,4 hPa 0,2 l/m 0 min 2 min 24 W/m 29,0 km/h (5 Bft) 94,29 %
17.02.2020 14:50 10,4 C 6,1 C 6,1 C 76 % 1012,5 hPa 0,2 l/m 0 min 2 min 20 W/m 45,1 km/h (6 Bft) 96,61 %
17.02.2020 14:52 10,1 C 6,1 C 6,1 C 78 % 1012,6 hPa 0,2 l/m 0 min 2 min 21 W/m 48,3 km/h (6 Bft) 94,29 %
17.02.2020 14:54 9,7 C 5,6 C 5,6 C 79 % 1012,7 hPa 0,4 l/m 0 min 2 min 27 W/m 22,5 km/h (4 Bft) 98,31 %
17.02.2020 14:56 9,4 C 5,6 C 5,6 C 81 % 1012,5 hPa 0,4 l/m 0 min 2 min 44 W/m 41,8 km/h (6 Bft) 97,83 %
17.02.2020 14:58 9,2 C 5,6 C 5,6 C 82 % 1012,8 hPa 0,2 l/m 0 min 2 min 39 W/m 35,4 km/h (5 Bft) 97,87 %
17.02.2020 15:00 8,9 C 5,6 C 5,6 C 82 % 1012,6 hPa 0,0 l/m 0 min 2 min 55 W/m 19,3 km/h (3 Bft) 95,74 %
17.02.2020 15:02 8,8 C 5,6 C 5,6 C 83 % 1012,7 hPa 0,0 l/m 0 min 2 min 67 W/m 25,7 km/h (4 Bft) 97,87 %
17.02.2020 15:04 8,6 C 5,6 C 5,6 C 84 % 1012,8 hPa 0,0 l/m 0 min 2 min 49 W/m 25,7 km/h (4 Bft) 95,74 %
17.02.2020 15:06 8,5 C 6,1 C 5,6 C 85 % 1012,8 hPa 0,0 l/m 0 min 2 min 46 W/m 16,1 km/h (3 Bft) 97,83 %
17.02.2020 15:08 8,4 C 6,1 C 5,6 C 86 % 1012,8 hPa 0,2 l/m 0 min 2 min 39 W/m 22,5 km/h (4 Bft) 97,87 %
17.02.2020 15:10 8,3 C 6,1 C 5,6 C 86 % 1012,9 hPa 0,0 l/m 0 min 2 min 27 W/m 29,0 km/h (5 Bft) 97,14 %
17.02.2020 15:12 8,2 C 5,6 C 5,6 C 87 % 1012,6 hPa 0,0 l/m 0 min 2 min 26 W/m 29,0 km/h (5 Bft) 98,31 %
17.02.2020 15:14 8,1 C 5,6 C 5,6 C 87 % 1012,7 hPa 0,2 l/m 0 min 2 min 24 W/m 41,8 km/h (6 Bft) 97,87 %
17.02.2020 15:16 8,1 C 6,1 C 5,6 C 88 % 1012,7 hPa 0,0 l/m 0 min 2 min 20 W/m 16,1 km/h (3 Bft) 100,00 %
17.02.2020 15:18 8,1 C 6,1 C 5,6 C 88 % 1012,8 hPa 0,0 l/m 0 min 2 min 17 W/m 19,3 km/h (3 Bft) 100,00 %
17.02.2020 15:20 8,1 C 6,1 C 5,6 C 88 % 1013,0 hPa 0,2 l/m 0 min 2 min 12 W/m 25,7 km/h (4 Bft) 100,00 %
17.02.2020 15:22 8,0 C 6,1 C 5,6 C 89 % 1013,2 hPa 0,0 l/m 0 min 2 min 9 W/m 22,5 km/h (4 Bft) 100,00 %
17.02.2020 15:24 7,9 C 5,6 C 5,6 C 89 % 1013,3 hPa 0,2 l/m 0 min 2 min 7 W/m 45,1 km/h (6 Bft) 98,31 %
17.02.2020 15:26 7,8 C 5,6 C 5,6 C 89 % 1013,2 hPa 0,2 l/m 0 min 2 min 6 W/m 25,7 km/h (4 Bft) 100,00 %
17.02.2020 15:28 7,7 C 5,6 C 5,6 C 89 % 1013,3 hPa 0,0 l/m 0 min 2 min 10 W/m 29,0 km/h (5 Bft) 100,00 %
17.02.2020 15:30 7,7 C 5,6 C 5,6 C 90 % 1013,4 hPa 0,0 l/m 0 min 2 min 24 W/m 16,1 km/h (3 Bft) 100,00 %
17.02.2020 15:32 7,6 C 5,6 C 5,6 C 90 % 1013,4 hPa 0,0 l/m 0 min 2 min 42 W/m 19,3 km/h (3 Bft) 97,87 %
17.02.2020 15:34 7,6 C 5,6 C 5,6 C 90 % 1013,5 hPa 0,2 l/m 0 min 2 min 55 W/m 16,1 km/h (3 Bft) 100,00 %
17.02.2020 15:36 7,6 C 6,1 C 5,6 C 91 % 1013,3 hPa 0,0 l/m 0 min 2 min 107 W/m 25,7 km/h (4 Bft) 100,00 %
17.02.2020 15:38 7,5 C 6,1 C 5,6 C 91 % 1013,2 hPa 0,0 l/m 0 min 2 min 85 W/m 12,9 km/h (3 Bft) 100,00 %
17.02.2020 15:40 7,5 C 7,2 C 5,6 C 91 % 1013,1 hPa 0,0 l/m 0 min 0 min 119 W/m 9,7 km/h (2 Bft) 100,00 %
17.02.2020 15:42 7,6 C 8,3 C 6,1 C 91 % 1013,1 hPa 0,0 l/m 2 min 0 min 297 W/m 3,2 km/h (1 Bft) 97,87 %
17.02.2020 15:44 7,6 C 7,2 C 6,1 C 92 % 1013,1 hPa 0,0 l/m 2 min 0 min 159 W/m 22,5 km/h (4 Bft) 100,00 %
17.02.2020 15:46 7,6 C 7,8 C 6,1 C 92 % 1012,9 hPa 0,0 l/m 2 min 0 min 164 W/m 16,1 km/h (3 Bft) 100,00 %
17.02.2020 15:48 7,6 C 8,9 C 6,1 C 92 % 1012,9 hPa 0,0 l/m 2 min 0 min 251 W/m 12,9 km/h (3 Bft) 100,00 %
17.02.2020 15:50 7,6 C 8,3 C 6,1 C 92 % 1013,0 hPa 0,0 l/m 2 min 0 min 274 W/m 3,2 km/h (1 Bft) 100,00 %
17.02.2020 15:52 7,7 C 7,2 C 6,1 C 92 % 1012,9 hPa 0,0 l/m 0 min 0 min 108 W/m 12,9 km/h (3 Bft) 100,00 %
17.02.2020 15:54 7,7 C 7,2 C 6,1 C 92 % 1012,8 hPa 0,0 l/m 0 min 0 min 112 W/m 6,4 km/h (2 Bft) 100,00 %
17.02.2020 15:56 7,7 C 7,2 C 6,1 C 92 % 1012,8 hPa 0,0 l/m 2 min 0 min 129 W/m 6,4 km/h (2 Bft) 97,83 %
17.02.2020 15:58 7,7 C 7,2 C 6,1 C 92 % 1012,9 hPa 0,0 l/m 0 min 0 min 97 W/m 3,2 km/h (1 Bft) 100,00 %
17.02.2020 16:00 7,7 C 6,7 C 6,1 C 92 % 1012,9 hPa 0,0 l/m 0 min 0 min 83 W/m 22,5 km/h (4 Bft) 100,00 %
17.02.2020 16:02 7,7 C 6,7 C 6,1 C 92 % 1012,9 hPa 0,0 l/m 0 min 0 min 107 W/m 0,0 km/h (0 Bft) 100,00 %
17.02.2020 16:04 7,7 C 6,7 C 6,1 C 92 % 1013,1 hPa 0,0 l/m 0 min 0 min 106 W/m 0,0 km/h (0 Bft) 100,00 %
17.02.2020 16:06 7,7 C 6,7 C 6,1 C 92 % 1013,0 hPa 0,0 l/m 0 min 0 min 92 W/m 16,1 km/h (3 Bft) 97,87 %
17.02.2020 16:08 7,7 C 6,7 C 6,1 C 92 % 1013,1 hPa 0,0 l/m 0 min 0 min 98 W/m 12,9 km/h (3 Bft) 53,49 %
17.02.2020 16:10 7,7 C 6,7 C 6,1 C 92 % 1013,2 hPa 0,0 l/m 0 min 0 min 56 W/m 3,2 km/h (1 Bft) 100,00 %
17.02.2020 16:12 7,8 C 6,7 C 6,1 C 92 % 1013,3 hPa 0,0 l/m 0 min 0 min 43 W/m 9,7 km/h (2 Bft) 100,00 %
17.02.2020 16:14 7,8 C 6,7 C 6,1 C 92 % 1013,4 hPa 0,0 l/m 0 min 0 min 51 W/m 9,7 km/h (2 Bft) 100,00 %
17.02.2020 16:16 7,8 C 7,8 C 6,1 C 92 % 1013,3 hPa 0,0 l/m 2 min 0 min 114 W/m 9,7 km/h (2 Bft) 100,00 %
17.02.2020 16:18 7,8 C 8,9 C 6,1 C 92 % 1013,3 hPa 0,0 l/m 2 min 0 min 193 W/m 6,4 km/h (2 Bft) 100,00 %
17.02.2020 16:20 7,8 C 8,9 C 6,1 C 92 % 1013,3 hPa 0,0 l/m 2 min 0 min 203 W/m 12,9 km/h (3 Bft) 100,00 %
17.02.2020 16:22 7,8 C 7,8 C 6,1 C 92 % 1013,2 hPa 0,0 l/m 2 min 0 min 135 W/m 19,3 km/h (3 Bft) 97,87 %
17.02.2020 16:24 7,8 C 7,2 C 6,1 C 92 % 1013,2 hPa 0,0 l/m 0 min 0 min 55 W/m 3,2 km/h (1 Bft) 97,87 %
17.02.2020 16:26 7,8 C 7,2 C 6,1 C 92 % 1013,1 hPa 0,0 l/m 0 min 0 min 51 W/m 16,1 km/h (3 Bft) 100,00 %
17.02.2020 16:28 7,8 C 6,7 C 6,1 C 92 % 1013,1 hPa 0,0 l/m 0 min 0 min 48 W/m 19,3 km/h (3 Bft) 100,00 %
17.02.2020 16:30 7,8 C 6,7 C 6,1 C 92 % 1013,2 hPa 0,0 l/m 0 min 0 min 45 W/m 6,4 km/h (2 Bft) 97,83 %
17.02.2020 16:32 7,8 C 6,7 C 6,1 C 92 % 1013,2 hPa 0,0 l/m 0 min 0 min 41 W/m 19,3 km/h (3 Bft) 100,00 %
17.02.2020 16:34 7,8 C 6,7 C 6,1 C 92 % 1013,2 hPa 0,0 l/m 0 min 0 min 39 W/m 16,1 km/h (3 Bft) 97,87 %
17.02.2020 16:36 7,8 C 6,7 C 6,1 C 92 % 1013,1 hPa 0,0 l/m 0 min 0 min 37 W/m 19,3 km/h (3 Bft) 97,87 %
17.02.2020 16:38 7,8 C 6,7 C 6,1 C 92 % 1013,1 hPa 0,0 l/m 0 min 0 min 36 W/m 12,9 km/h (3 Bft) 97,87 %
17.02.2020 16:40 7,8 C 6,7 C 6,1 C 92 % 1013,2 hPa 0,0 l/m 0 min 0 min 35 W/m 12,9 km/h (3 Bft) 91,49 %
17.02.2020 16:42 7,8 C 7,2 C 6,1 C 92 % 1013,2 hPa 0,0 l/m 0 min 0 min 35 W/m 16,1 km/h (3 Bft) 97,83 %
17.02.2020 16:44 7,8 C 7,2 C 6,1 C 92 % 1013,2 hPa 0,0 l/m 0 min 0 min 37 W/m 12,9 km/h (3 Bft) 93,62 %
17.02.2020 16:46 7,8 C 7,2 C 6,1 C 92 % 1013,1 hPa 0,0 l/m 0 min 0 min 34 W/m 12,9 km/h (3 Bft) 93,62 %
17.02.2020 16:48 7,9 C 6,7 C 6,1 C 91 % 1013,2 hPa 0,0 l/m 0 min 0 min 33 W/m 12,9 km/h (3 Bft) 95,74 %
17.02.2020 16:50 7,9 C 6,7 C 6,1 C 91 % 1013,2 hPa 0,0 l/m 0 min 0 min 38 W/m 19,3 km/h (3 Bft) 95,74 %
17.02.2020 16:52 7,9 C 6,7 C 6,1 C 91 % 1013,1 hPa 0,0 l/m 0 min 0 min 42 W/m 12,9 km/h (3 Bft) 95,74 %
17.02.2020 16:54 7,9 C 6,7 C 6,1 C 91 % 1013,1 hPa 0,0 l/m 0 min 0 min 38 W/m 22,5 km/h (4 Bft) 97,83 %
17.02.2020 16:56 7,9 C 6,7 C 6,1 C 91 % 1013,2 hPa 0,0 l/m 0 min 0 min 33 W/m 6,4 km/h (2 Bft) 95,74 %
17.02.2020 16:58 7,9 C 6,7 C 6,1 C 91 % 1013,1 hPa 0,0 l/m 0 min 0 min 31 W/m 19,3 km/h (3 Bft) 95,74 %
17.02.2020 17:00 7,9 C 6,7 C 6,1 C 91 % 1013,2 hPa 0,0 l/m 0 min 0 min 28 W/m 12,9 km/h (3 Bft) 95,74 %
17.02.2020 17:02 7,9 C 6,7 C 6,1 C 90 % 1013,2 hPa 0,0 l/m 0 min 0 min 27 W/m 19,3 km/h (3 Bft) 95,74 %
17.02.2020 17:04 7,9 C 6,7 C 5,6 C 90 % 1013,2 hPa 0,0 l/m 0 min 0 min 26 W/m 16,1 km/h (3 Bft) 95,74 %
17.02.2020 17:06 7,9 C 6,7 C 5,6 C 90 % 1013,2 hPa 0,0 l/m 0 min 0 min 25 W/m 19,3 km/h (3 Bft) 95,65 %
17.02.2020 17:08 7,9 C 6,7 C 5,6 C 89 % 1013,2 hPa 0,2 l/m 0 min 0 min 25 W/m 22,5 km/h (4 Bft) 95,74 %
17.02.2020 17:10 7,9 C 6,7 C 5,6 C 89 % 1013,2 hPa 0,0 l/m 0 min 0 min 24 W/m 16,1 km/h (3 Bft) 95,74 %
17.02.2020 17:12 7,9 C 6,7 C 6,1 C 88 % 1013,2 hPa 0,0 l/m 0 min 0 min 23 W/m 22,5 km/h (4 Bft) 93,62 %
17.02.2020 17:14 7,9 C 6,7 C 6,1 C 87 % 1013,3 hPa 0,0 l/m 0 min 0 min 21 W/m 32,2 km/h (5 Bft) 97,87 %
17.02.2020 17:16 7,9 C 6,7 C 6,7 C 86 % 1013,3 hPa 0,0 l/m 0 min 0 min 21 W/m 22,5 km/h (4 Bft) 97,87 %
17.02.2020 17:18 7,9 C 6,7 C 6,7 C 85 % 1013,3 hPa 0,0 l/m 0 min 0 min 19 W/m 22,5 km/h (4 Bft) 95,65 %
17.02.2020 17:20 7,9 C 6,7 C 6,7 C 85 % 1013,3 hPa 0,0 l/m 0 min 0 min 19 W/m 19,3 km/h (3 Bft) 95,74 %
17.02.2020 17:22 7,9 C 6,7 C 6,7 C 84 % 1013,3 hPa 0,0 l/m 0 min 0 min 18 W/m 25,7 km/h (4 Bft) 95,74 %
17.02.2020 17:24 7,9 C 6,7 C 6,1 C 84 % 1013,3 hPa 0,0 l/m 0 min 0 min 18 W/m 16,1 km/h (3 Bft) 95,74 %
17.02.2020 17:26 7,9 C 6,7 C 6,7 C 83 % 1013,3 hPa 0,0 l/m 0 min 0 min 16 W/m 19,3 km/h (3 Bft) 93,62 %
17.02.2020 17:28 7,9 C 6,7 C 6,7 C 83 % 1013,4 hPa 0,0 l/m 0 min 0 min 16 W/m 16,1 km/h (3 Bft) 95,65 %
17.02.2020 17:30 7,9 C 6,7 C 6,1 C 83 % 1013,4 hPa 0,0 l/m 0 min 0 min 14 W/m 29,0 km/h (5 Bft) 95,74 %
17.02.2020 17:32 7,9 C 6,7 C 6,1 C 83 % 1013,4 hPa 0,0 l/m 0 min 0 min 13 W/m 19,3 km/h (3 Bft) 95,74 %
17.02.2020 17:34 7,9 C 7,2 C 6,1 C 83 % 1013,3 hPa 0,0 l/m 0 min 0 min 11 W/m 12,9 km/h (3 Bft) 95,74 %
17.02.2020 17:36 7,9 C 7,2 C 6,1 C 82 % 1013,4 hPa 0,0 l/m 0 min 0 min 11 W/m 22,5 km/h (4 Bft) 91,49 %
17.02.2020 17:38 7,9 C 7,2 C 6,1 C 82 % 1013,3 hPa 0,0 l/m 0 min 0 min 9 W/m 19,3 km/h (3 Bft) 95,74 %
17.02.2020 17:40 7,9 C 7,2 C 6,1 C 82 % 1013,5 hPa 0,0 l/m 0 min 0 min 9 W/m 12,9 km/h (3 Bft) 97,83 %
17.02.2020 17:42 7,9 C 6,7 C 6,1 C 82 % 1013,4 hPa 0,0 l/m 0 min 0 min 7 W/m 16,1 km/h (3 Bft) 97,87 %
17.02.2020 17:44 7,8 C 6,7 C 5,6 C 82 % 1013,4 hPa 0,0 l/m 0 min 0 min 7 W/m 16,1 km/h (3 Bft) 93,62 %
17.02.2020 17:46 7,8 C 6,7 C 5,6 C 82 % 1013,5 hPa 0,0 l/m 0 min 0 min 6 W/m 16,1 km/h (3 Bft) 97,87 %
17.02.2020 17:48 7,8 C 6,7 C 6,1 C 82 % 1013,4 hPa 0,0 l/m 0 min 0 min 5 W/m 16,1 km/h (3 Bft) 97,87 %
17.02.2020 17:50 7,8 C 6,7 C 5,6 C 82 % 1013,5 hPa 0,0 l/m 0 min 0 min 5 W/m 12,9 km/h (3 Bft) 97,87 %
17.02.2020 17:52 7,8 C 6,7 C 5,6 C 82 % 1013,6 hPa 0,0 l/m 0 min 0 min 5 W/m 12,9 km/h (3 Bft) 97,83 %
17.02.2020 17:54 7,7 C 6,7 C 5,6 C 82 % 1013,6 hPa 0,0 l/m 0 min 0 min 1 W/m 12,9 km/h (3 Bft) 95,74 %
17.02.2020 17:56 7,7 C 6,7 C 5,6 C 82 % 1013,6 hPa 0,0 l/m 0 min 0 min 0 W/m 12,9 km/h (3 Bft) 95,74 %
17.02.2020 17:58 7,7 C 6,7 C 5,6 C 82 % 1013,7 hPa 0,0 l/m 0 min 0 min 0 W/m 16,1 km/h (3 Bft) 97,87 %
17.02.2020 18:00 7,7 C 6,7 C 5,6 C 82 % 1013,7 hPa 0,0 l/m 0 min 0 min 0 W/m 6,4 km/h (2 Bft) 97,87 %
17.02.2020 18:02 7,7 C 6,7 C 5,6 C 82 % 1013,7 hPa 0,0 l/m 0 min 0 min 0 W/m 12,9 km/h (3 Bft) 97,14 %
17.02.2020 18:04 7,6 C 6,7 C 5,6 C 82 % 1013,7 hPa 0,0 l/m 0 min 0 min 0 W/m 16,1 km/h (3 Bft) 96,67 %
17.02.2020 18:06 7,6 C 6,7 C 5,6 C 82 % 1013,7 hPa 0,0 l/m 0 min 0 min 0 W/m 9,7 km/h (2 Bft) 97,87 %
17.02.2020 18:08 7,6 C 6,7 C 5,6 C 82 % 1013,7 hPa 0,0 l/m 0 min 0 min 0 W/m 16,1 km/h (3 Bft) 95,74 %
17.02.2020 18:10 7,6 C 6,7 C 5,6 C 82 % 1013,8 hPa 0,0 l/m 0 min 0 min 0 W/m 25,7 km/h (4 Bft) 100,00 %
17.02.2020 18:12 7,6 C 6,7 C 5,6 C 82 % 1013,7 hPa 0,0 l/m 0 min 0 min 0 W/m 16,1 km/h (3 Bft) 100,00 %
17.02.2020 18:14 7,6 C 6,7 C 5,6 C 82 % 1013,8 hPa 0,0 l/m 0 min 0 min 0 W/m 19,3 km/h (3 Bft) 95,74 %
17.02.2020 18:16 7,6 C 6,7 C 6,1 C 82 % 1013,8 hPa 0,0 l/m 0 min 0 min 0 W/m 12,9 km/h (3 Bft) 97,87 %
17.02.2020 18:18 7,6 C 6,7 C 6,1 C 82 % 1013,8 hPa 0,0 l/m 0 min 0 min 0 W/m 12,9 km/h (3 Bft) 100,00 %
17.02.2020 18:20 7,6 C 6,7 C 6,1 C 82 % 1013,8 hPa 0,0 l/m 0 min 0 min 0 W/m 16,1 km/h (3 Bft) 100,00 %
17.02.2020 18:22 7,5 C 6,7 C 6,1 C 82 % 1013,9 hPa 0,0 l/m 0 min 0 min 0 W/m 16,1 km/h (3 Bft) 95,65 %
17.02.2020 18:24 7,5 C 6,7 C 6,1 C 83 % 1013,9 hPa 0,0 l/m 0 min 0 min 0 W/m 12,9 km/h (3 Bft) 97,87 %
17.02.2020 18:26 7,5 C 6,7 C 6,1 C 83 % 1013,9 hPa 0,0 l/m 0 min 0 min 0 W/m 19,3 km/h (3 Bft) 100,00 %
17.02.2020 18:28 7,5 C 6,7 C 6,1 C 83 % 1014,0 hPa 0,0 l/m 0 min 0 min 0 W/m 22,5 km/h (4 Bft) 100,00 %
17.02.2020 18:30 7,5 C 7,2 C 6,1 C 83 % 1013,9 hPa 0,0 l/m 0 min 0 min 0 W/m 16,1 km/h (3 Bft) 100,00 %
17.02.2020 18:32 7,6 C 7,2 C 6,1 C 83 % 1014,0 hPa 0,0 l/m 0 min 0 min 0 W/m 19,3 km/h (3 Bft) 95,74 %
17.02.2020 18:34 7,6 C 7,2 C 6,1 C 83 % 1014,0 hPa 0,0 l/m 0 min 0 min 0 W/m 25,7 km/h (4 Bft) 100,00 %
17.02.2020 18:36 7,6 C 7,2 C 6,1 C 83 % 1014,0 hPa 0,0 l/m 0 min 0 min 0 W/m 16,1 km/h (3 Bft) 97,87 %
17.02.2020 18:38 7,6 C 7,2 C 6,7 C 82 % 1014,1 hPa 0,0 l/m 0 min 0 min 0 W/m 22,5 km/h (4 Bft) 97,87 %
17.02.2020 18:40 7,6 C 7,2 C 6,7 C 82 % 1014,1 hPa 0,0 l/m 0 min 0 min 0 W/m 16,1 km/h (3 Bft) 97,87 %
17.02.2020 18:42 7,7 C 7,2 C 6,7 C 82 % 1014,1 hPa 0,0 l/m 0 min 0 min 0 W/m 16,1 km/h (3 Bft) 93,62 %
17.02.2020 18:44 7,7 C 7,2 C 6,7 C 82 % 1014,1 hPa 0,0 l/m 0 min 0 min 0 W/m 12,9 km/h (3 Bft) 97,87 %
17.02.2020 18:46 7,7 C 7,2 C 6,7 C 82 % 1014,1 hPa 0,0 l/m 0 min 0 min 0 W/m 22,5 km/h (4 Bft) 97,83 %
17.02.2020 18:48 7,7 C 7,2 C 6,7 C 83 % 1014,2 hPa 0,0 l/m 0 min 0 min 0 W/m 16,1 km/h (3 Bft) 97,87 %
17.02.2020 18:50 7,8 C 7,2 C 6,7 C 83 % 1014,3 hPa 0,0 l/m 0 min 0 min 0 W/m 16,1 km/h (3 Bft) 97,87 %
17.02.2020 18:52 7,8 C 7,2 C 6,7 C 83 % 1014,4 hPa 0,0 l/m 0 min 0 min 0 W/m 22,5 km/h (4 Bft) 97,87 %
17.02.2020 18:54 7,8 C 7,2 C 6,7 C 83 % 1014,5 hPa 0,0 l/m 0 min 0 min 0 W/m 22,5 km/h (4 Bft) 100,00 %
17.02.2020 18:56 7,8 C 7,2 C 6,7 C 83 % 1014,6 hPa 0,0 l/m 0 min 2 min 0 W/m 19,3 km/h (3 Bft) 97,87 %
17.02.2020 18:58 7,9 C 6,7 C 6,1 C 83 % 1014,8 hPa 0,0 l/m 0 min 2 min 0 W/m 19,3 km/h (3 Bft) 95,65 %
17.02.2020 19:00 7,9 C 6,1 C 5,6 C 83 % 1014,8 hPa 0,0 l/m 0 min 2 min 0 W/m 16,1 km/h (3 Bft) 97,87 %
17.02.2020 19:02 7,9 C 6,1 C 5,0 C 84 % 1014,9 hPa 0,0 l/m 0 min 2 min 0 W/m 22,5 km/h (4 Bft) 97,87 %
17.02.2020 19:04 7,8 C 5,6 C 5,0 C 85 % 1014,8 hPa 0,0 l/m 0 min 2 min 0 W/m 19,3 km/h (3 Bft) 97,87 %
17.02.2020 19:06 7,7 C 5,6 C 5,0 C 85 % 1014,7 hPa 0,0 l/m 0 min 2 min 0 W/m 35,4 km/h (5 Bft) 97,87 %
17.02.2020 19:08 7,7 C 5,6 C 5,0 C 86 % 1014,7 hPa 0,0 l/m 0 min 2 min 0 W/m 22,5 km/h (4 Bft) 97,83 %
17.02.2020 19:10 7,6 C 5,0 C 5,0 C 87 % 1014,8 hPa 0,0 l/m 0 min 0 min 0 W/m 22,5 km/h (4 Bft) 97,87 %
17.02.2020 19:12 7,5 C 5,0 C 5,0 C 87 % 1014,7 hPa 0,0 l/m 0 min 0 min 0 W/m 12,9 km/h (3 Bft) 97,87 %
17.02.2020 19:14 7,4 C 5,0 C 4,4 C 87 % 1014,7 hPa 0,0 l/m 0 min 0 min 0 W/m 16,1 km/h (3 Bft) 97,87 %
17.02.2020 19:16 7,4 C 5,0 C 5,0 C 88 % 1014,8 hPa 0,0 l/m 0 min 0 min 0 W/m 9,7 km/h (2 Bft) 100,00 %
17.02.2020 19:18 7,3 C 5,0 C 5,0 C 88 % 1014,8 hPa 0,0 l/m 0 min 0 min 0 W/m 22,5 km/h (4 Bft) 100,00 %
17.02.2020 19:20 7,2 C 5,0 C 5,0 C 88 % 1014,9 hPa 0,0 l/m 0 min 0 min 0 W/m 9,7 km/h (2 Bft) 100,00 %
17.02.2020 19:22 7,2 C 5,0 C 5,0 C 88 % 1014,9 hPa 0,0 l/m 0 min 0 min 0 W/m 6,4 km/h (2 Bft) 100,00 %
17.02.2020 19:24 7,2 C 5,6 C 5,0 C 89 % 1014,9 hPa 0,0 l/m 0 min 0 min 0 W/m 6,4 km/h (2 Bft) 100,00 %
17.02.2020 19:26 7,1 C 5,6 C 5,0 C 89 % 1014,9 hPa 0,0 l/m 0 min 2 min 0 W/m 0,0 km/h (0 Bft) 100,00 %
17.02.2020 19:28 7,1 C 5,6 C 5,0 C 89 % 1014,9 hPa 0,0 l/m 0 min 0 min 0 W/m 3,2 km/h (1 Bft) 100,00 %
17.02.2020 19:30 7,1 C 5,6 C 5,0 C 89 % 1014,8 hPa 0,0 l/m 0 min 0 min 0 W/m 6,4 km/h (2 Bft) 100,00 %
17.02.2020 19:32 7,0 C 5,6 C 5,0 C 89 % 1014,9 hPa 0,0 l/m 0 min 0 min 0 W/m 6,4 km/h (2 Bft) 97,83 %
17.02.2020 19:34 7,0 C 5,6 C 5,0 C 89 % 1014,8 hPa 0,0 l/m 0 min 0 min 0 W/m 0,0 km/h (0 Bft) 100,00 %
17.02.2020 19:36 6,9 C 5,6 C 5,0 C 89 % 1014,8 hPa 0,0 l/m 0 min 0 min 0 W/m 6,4 km/h (2 Bft) 100,00 %
17.02.2020 19:38 6,9 C 5,6 C 5,0 C 89 % 1014,8 hPa 0,0 l/m 0 min 0 min 0 W/m 6,4 km/h (2 Bft) 100,00 %
17.02.2020 19:40 6,9 C 5,6 C 4,4 C 90 % 1014,8 hPa 0,0 l/m 0 min 0 min 0 W/m 0,0 km/h (0 Bft) 100,00 %
17.02.2020 19:42 6,9 C 5,6 C 5,0 C 90 % 1014,7 hPa 0,0 l/m 0 min 0 min 0 W/m 0,0 km/h (0 Bft) 100,00 %
17.02.2020 19:44 6,8 C 5,6 C 5,0 C 90 % 1014,7 hPa 0,0 l/m 0 min 0 min 0 W/m 6,4 km/h (2 Bft) 100,00 %
17.02.2020 19:46 6,8 C 5,6 C 5,0 C 90 % 1014,7 hPa 0,0 l/m 0 min 0 min 0 W/m 3,2 km/h (1 Bft) 100,00 %
17.02.2020 19:48 6,8 C 5,6 C 5,0 C 90 % 1014,7 hPa 0,0 l/m 0 min 0 min 0 W/m 0,0 km/h (0 Bft) 100,00 %
17.02.2020 19:50 6,8 C 5,6 C 5,0 C 90 % 1014,8 hPa 0,0 l/m 0 min 0 min 0 W/m 0,0 km/h (0 Bft) 100,00 %
17.02.2020 19:52 6,8 C 5,6 C 5,0 C 90 % 1014,9 hPa 0,0 l/m 0 min 0 min 0 W/m 0,0 km/h (0 Bft) 100,00 %
17.02.2020 19:54 6,8 C 5,6 C 5,0 C 90 % 1014,9 hPa 0,0 l/m 0 min 2 min 0 W/m 0,0 km/h (0 Bft) 100,00 %
17.02.2020 19:56 6,8 C 5,6 C 5,0 C 90 % 1014,9 hPa 0,0 l/m 0 min 2 min 0 W/m 0,0 km/h (0 Bft) 98,15 %
17.02.2020 19:58 6,7 C 5,6 C 5,0 C 90 % 1014,9 hPa 0,0 l/m 0 min 2 min 0 W/m 0,0 km/h (0 Bft) 100,00 %
17.02.2020 20:00 6,7 C 5,6 C 5,0 C 90 % 1014,9 hPa 0,0 l/m 0 min 2 min 0 W/m 0,0 km/h (0 Bft) 100,00 %
17.02.2020 20:02 6,7 C 5,0 C 4,4 C 90 % 1015,0 hPa 0,0 l/m 0 min 0 min 0 W/m 0,0 km/h (0 Bft) 100,00 %
17.02.2020 20:04 6,7 C 5,0 C 5,0 C 91 % 1015,1 hPa 0,0 l/m 0 min 2 min 0 W/m 0,0 km/h (0 Bft) 100,00 %
17.02.2020 20:06 6,7 C 5,0 C 5,0 C 91 % 1015,1 hPa 0,0 l/m 0 min 2 min 0 W/m 0,0 km/h (0 Bft) 100,00 %
17.02.2020 20:08 6,7 C 5,0 C 5,0 C 91 % 1015,1 hPa 0,0 l/m 0 min 2 min 0 W/m 3,2 km/h (1 Bft) 97,83 %
17.02.2020 20:10 6,7 C 5,0 C 5,0 C 91 % 1015,1 hPa 0,0 l/m 0 min 2 min 0 W/m 3,2 km/h (1 Bft) 100,00 %
17.02.2020 20:12 6,7 C 5,0 C 5,0 C 91 % 1015,2 hPa 0,0 l/m 0 min 2 min 0 W/m 0,0 km/h (0 Bft) 100,00 %
17.02.2020 20:14 6,7 C 5,0 C 5,0 C 91 % 1015,1 hPa 0,0 l/m 0 min 2 min 0 W/m 0,0 km/h (0 Bft) 100,00 %
17.02.2020 20:16 6,7 C 5,0 C 4,4 C 91 % 1015,0 hPa 0,0 l/m 0 min 2 min 0 W/m 6,4 km/h (2 Bft) 97,87 %
17.02.2020 20:18 6,6 C 5,0 C 4,4 C 92 % 1015,0 hPa 0,0 l/m 0 min 2 min 0 W/m 0,0 km/h (0 Bft) 97,87 %
17.02.2020 20:20 6,6 C 5,6 C 5,0 C 92 % 1015,0 hPa 0,0 l/m 0 min 2 min 0 W/m 0,0 km/h (0 Bft) 97,87 %
17.02.2020 20:22 6,6 C 5,6 C 5,0 C 92 % 1014,9 hPa 0,0 l/m 0 min 2 min 0 W/m 12,9 km/h (3 Bft) 97,83 %
17.02.2020 20:25 6,6 C 5,6 C 5,0 C 92 % 1015,0 hPa 0,0 l/m 0 min 3 min 0 W/m 12,9 km/h (3 Bft) 97,18 %
17.02.2020 20:26 6,6 C 5,6 C 5,0 C 92 % 1015,0 hPa 0,0 l/m 0 min 1 min 0 W/m 32,2 km/h (5 Bft) 100,00 %
17.02.2020 20:28 6,6 C 5,6 C 5,0 C 92 % 1014,9 hPa 0,0 l/m 0 min 2 min 0 W/m 19,3 km/h (3 Bft) 97,87 %
17.02.2020 20:30 6,7 C 5,6 C 5,0 C 92 % 1015,0 hPa 0,0 l/m 0 min 0 min 0 W/m 12,9 km/h (3 Bft) 97,37 %
17.02.2020 20:32 6,7 C 6,1 C 5,0 C 92 % 1014,9 hPa 0,0 l/m 0 min 0 min 0 W/m 6,4 km/h (2 Bft) 97,87 %
17.02.2020 20:34 6,7 C 6,1 C 5,0 C 91 % 1014,9 hPa 0,0 l/m 0 min 0 min 0 W/m 22,5 km/h (4 Bft) 97,83 %
17.02.2020 20:36 6,8 C 6,1 C 5,6 C 91 % 1014,9 hPa 0,0 l/m 0 min 2 min 0 W/m 16,1 km/h (3 Bft) 95,74 %
17.02.2020 20:38 6,9 C 6,1 C 5,6 C 91 % 1014,9 hPa 0,0 l/m 0 min 2 min 0 W/m 12,9 km/h (3 Bft) 93,62 %
17.02.2020 20:40 6,9 C 6,1 C 5,6 C 91 % 1014,9 hPa 0,0 l/m 0 min 2 min 0 W/m 6,4 km/h (2 Bft) 95,74 %
17.02.2020 20:42 7,0 C 6,1 C 5,6 C 90 % 1014,9 hPa 0,0 l/m 0 min 0 min 0 W/m 22,5 km/h (4 Bft) 91,49 %
17.02.2020 20:44 7,1 C 6,1 C 5,6 C 90 % 1014,9 hPa 0,0 l/m 0 min 0 min 0 W/m 12,9 km/h (3 Bft) 95,74 %
17.02.2020 20:46 7,1 C 6,7 C 5,6 C 90 % 1014,9 hPa 0,0 l/m 0 min 2 min 0 W/m 6,4 km/h (2 Bft) 95,74 %
17.02.2020 20:48 7,1 C 6,7 C 5,6 C 90 % 1014,9 hPa 0,0 l/m 0 min 0 min 0 W/m 9,7 km/h (2 Bft) 93,48 %
17.02.2020 20:50 7,2 C 6,7 C 5,6 C 90 % 1014,9 hPa 0,0 l/m 0 min 0 min 0 W/m 19,3 km/h (3 Bft) 95,74 %
17.02.2020 20:52 7,2 C 6,7 C 5,6 C 89 % 1014,9 hPa 0,0 l/m 0 min 2 min 0 W/m 12,9 km/h (3 Bft) 93,62 %
17.02.2020 20:54 7,3 C 6,7 C 5,6 C 89 % 1014,9 hPa 0,0 l/m 0 min 2 min 0 W/m 12,9 km/h (3 Bft) 89,36 %
17.02.2020 20:56 7,3 C 7,2 C 5,6 C 89 % 1014,9 hPa 0,0 l/m 0 min 2 min 0 W/m 12,9 km/h (3 Bft) 91,49 %
17.02.2020 20:58 7,4 C 7,2 C 5,6 C 89 % 1014,9 hPa 0,0 l/m 0 min 0 min 0 W/m 29,0 km/h (5 Bft) 93,48 %
17.02.2020 21:00 7,4 C 7,2 C 5,6 C 88 % 1014,9 hPa 0,0 l/m 0 min 2 min 0 W/m 19,3 km/h (3 Bft) 93,62 %
17.02.2020 21:02 7,6 C 7,2 C 5,6 C 88 % 1014,9 hPa 0,0 l/m 0 min 2 min 0 W/m 25,7 km/h (4 Bft) 93,62 %
17.02.2020 21:04 7,6 C 7,2 C 5,6 C 88 % 1015,0 hPa 0,0 l/m 0 min 2 min 0 W/m 19,3 km/h (3 Bft) 91,49 %
17.02.2020 21:06 7,6 C 7,2 C 5,6 C 88 % 1015,0 hPa 0,0 l/m 0 min 2 min 0 W/m 29,0 km/h (5 Bft) 91,49 %
17.02.2020 21:08 7,7 C 7,2 C 5,6 C 87 % 1015,1 hPa 0,0 l/m 0 min 2 min 0 W/m 29,0 km/h (5 Bft) 91,49 %
17.02.2020 21:10 7,7 C 7,2 C 6,1 C 87 % 1015,1 hPa 0,0 l/m 0 min 2 min 0 W/m 38,6 km/h (5 Bft) 94,74 %
17.02.2020 21:12 7,8 C 7,2 C 6,1 C 87 % 1015,1 hPa 0,0 l/m 0 min 0 min 0 W/m 22,5 km/h (4 Bft) 92,31 %
17.02.2020 21:14 7,8 C 7,2 C 6,1 C 86 % 1015,1 hPa 0,0 l/m 0 min 0 min 0 W/m 29,0 km/h (5 Bft) 93,62 %
17.02.2020 21:16 7,8 C 7,2 C 6,1 C 86 % 1015,1 hPa 0,0 l/m 0 min 0 min 0 W/m 25,7 km/h (4 Bft) 95,65 %
17.02.2020 21:18 7,9 C 7,2 C 6,1 C 86 % 1015,1 hPa 0,0 l/m 0 min 2 min 0 W/m 22,5 km/h (4 Bft) 95,74 %
17.02.2020 21:20 7,9 C 7,2 C 6,1 C 85 % 1015,1 hPa 0,0 l/m 0 min 0 min 0 W/m 22,5 km/h (4 Bft) 94,55 %
17.02.2020 21:22 7,9 C 7,2 C 6,1 C 85 % 1015,2 hPa 0,0 l/m 0 min 0 min 0 W/m 19,3 km/h (3 Bft) 93,62 %
17.02.2020 21:24 7,9 C 7,2 C 6,1 C 85 % 1015,2 hPa 0,0 l/m 0 min 0 min 0 W/m 12,9 km/h (3 Bft) 94,29 %
17.02.2020 21:26 7,9 C 7,2 C 6,1 C 85 % 1015,2 hPa 0,0 l/m 0 min 0 min 0 W/m 16,1 km/h (3 Bft) 94,74 %
17.02.2020 21:28 8,0 C 7,2 C 6,1 C 85 % 1015,2 hPa 0,0 l/m 0 min 0 min 0 W/m 22,5 km/h (4 Bft) 95,74 %
17.02.2020 21:30 8,0 C 7,2 C 6,1 C 85 % 1015,2 hPa 0,0 l/m 0 min 0 min 0 W/m 19,3 km/h (3 Bft) 95,74 %
17.02.2020 21:32 8,1 C 7,8 C 6,1 C 85 % 1015,2 hPa 0,0 l/m 0 min 2 min 0 W/m 35,4 km/h (5 Bft) 95,74 %
17.02.2020 21:34 8,1 C 7,8 C 6,1 C 85 % 1015,2 hPa 0,0 l/m 0 min 0 min 0 W/m 38,6 km/h (5 Bft) 97,87 %
17.02.2020 21:36 8,1 C 7,8 C 6,1 C 84 % 1015,3 hPa 0,0 l/m 0 min 0 min 0 W/m 41,8 km/h (6 Bft) 95,74 %
17.02.2020 21:38 8,1 C 7,8 C 6,1 C 84 % 1015,3 hPa 0,0 l/m 0 min 0 min 0 W/m 22,5 km/h (4 Bft) 97,37 %
17.02.2020 21:40 8,1 C 7,8 C 6,1 C 84 % 1015,4 hPa 0,0 l/m 0 min 0 min 0 W/m 16,1 km/h (3 Bft) 97,83 %
17.02.2020 21:42 8,1 C 7,2 C 6,1 C 84 % 1015,4 hPa 0,0 l/m 0 min 0 min 0 W/m 19,3 km/h (3 Bft) 100,00 %
17.02.2020 21:44 8,1 C 7,2 C 6,1 C 84 % 1015,5 hPa 0,0 l/m 0 min 0 min 0 W/m 22,5 km/h (4 Bft) 100,00 %
17.02.2020 21:46 8,1 C 7,2 C 6,1 C 84 % 1015,4 hPa 0,0 l/m 0 min 0 min 0 W/m 16,1 km/h (3 Bft) 100,00 %
17.02.2020 21:48 8,2 C 7,8 C 6,1 C 84 % 1015,5 hPa 0,0 l/m 0 min 0 min 0 W/m 19,3 km/h (3 Bft) 97,87 %
17.02.2020 21:50 8,2 C 7,8 C 6,7 C 84 % 1015,5 hPa 0,0 l/m 0 min 0 min 0 W/m 12,9 km/h (3 Bft) 100,00 %
17.02.2020 21:52 8,2 C 7,2 C 6,1 C 84 % 1015,5 hPa 0,0 l/m 0 min 0 min 0 W/m 16,1 km/h (3 Bft) 100,00 %
17.02.2020 21:54 8,2 C 7,8 C 6,7 C 84 % 1015,5 hPa 0,0 l/m 0 min 0 min 0 W/m 19,3 km/h (3 Bft) 100,00 %
17.02.2020 21:56 8,2 C 7,8 C 6,7 C 84 % 1015,5 hPa 0,0 l/m 0 min 0 min 0 W/m 19,3 km/h (3 Bft) 100,00 %
17.02.2020 21:58 8,2 C 7,2 C 6,7 C 84 % 1015,6 hPa 0,0 l/m 0 min 0 min 0 W/m 19,3 km/h (3 Bft) 100,00 %
17.02.2020 22:00 8,2 C 7,2 C 6,7 C 84 % 1015,6 hPa 0,0 l/m 0 min 0 min 0 W/m 19,3 km/h (3 Bft) 100,00 %
17.02.2020 22:02 8,2 C 7,2 C 6,7 C 84 % 1015,6 hPa 0,0 l/m 0 min 0 min 0 W/m 29,0 km/h (5 Bft) 97,87 %
17.02.2020 22:04 8,2 C 7,2 C 6,7 C 84 % 1015,6 hPa 0,0 l/m 0 min 0 min 0 W/m 16,1 km/h (3 Bft) 98,11 %
17.02.2020 22:06 8,2 C 7,2 C 6,7 C 84 % 1015,6 hPa 0,0 l/m 0 min 0 min 0 W/m 22,5 km/h (4 Bft) 100,00 %
17.02.2020 22:08 8,2 C 7,2 C 6,7 C 84 % 1015,7 hPa 0,0 l/m 0 min 0 min 0 W/m 22,5 km/h (4 Bft) 100,00 %
17.02.2020 22:10 8,2 C 7,2 C 6,7 C 84 % 1015,7 hPa 0,0 l/m 0 min 0 min 0 W/m 22,5 km/h (4 Bft) 100,00 %
17.02.2020 22:12 8,2 C 7,2 C 6,7 C 85 % 1015,7 hPa 0,0 l/m 0 min 0 min 0 W/m 25,7 km/h (4 Bft) 100,00 %
17.02.2020 22:14 8,1 C 7,2 C 6,7 C 85 % 1015,8 hPa 0,0 l/m 0 min 0 min 0 W/m 16,1 km/h (3 Bft) 100,00 %
17.02.2020 22:16 8,1 C 7,2 C 6,7 C 85 % 1015,8 hPa 0,0 l/m 0 min 0 min 0 W/m 25,7 km/h (4 Bft) 97,83 %
17.02.2020 22:18 8,1 C 7,2 C 6,7 C 85 % 1015,8 hPa 0,0 l/m 0 min 0 min 0 W/m 16,1 km/h (3 Bft) 100,00 %
17.02.2020 22:20 8,1 C 7,2 C 6,7 C 85 % 1015,8 hPa 0,0 l/m 0 min 0 min 0 W/m 19,3 km/h (3 Bft) 100,00 %
17.02.2020 22:22 8,1 C 7,2 C 6,7 C 85 % 1015,9 hPa 0,0 l/m 0 min 0 min 0 W/m 22,5 km/h (4 Bft) 100,00 %
17.02.2020 22:24 8,1 C 7,2 C 6,7 C 85 % 1015,9 hPa 0,0 l/m 0 min 0 min 0 W/m 22,5 km/h (4 Bft) 100,00 %
17.02.2020 22:26 8,1 C 7,2 C 6,7 C 85 % 1016,2 hPa 0,0 l/m 0 min 0 min 0 W/m 19,3 km/h (3 Bft) 100,00 %
17.02.2020 22:28 8,1 C 7,2 C 6,7 C 85 % 1015,9 hPa 0,0 l/m 0 min 0 min 0 W/m 35,4 km/h (5 Bft) 100,00 %
17.02.2020 22:30 8,1 C 7,2 C 6,7 C 85 % 1016,0 hPa 0,0 l/m 0 min 0 min 0 W/m 25,7 km/h (4 Bft) 100,00 %
17.02.2020 22:32 8,1 C 7,2 C 6,7 C 85 % 1016,1 hPa 0,0 l/m 0 min 0 min 0 W/m 29,0 km/h (5 Bft) 100,00 %
17.02.2020 22:34 8,1 C 7,2 C 6,7 C 85 % 1016,0 hPa 0,0 l/m 0 min 0 min 0 W/m 19,3 km/h (3 Bft) 100,00 %
17.02.2020 22:36 8,1 C 7,2 C 6,7 C 85 % 1016,0 hPa 0,0 l/m 0 min 0 min 0 W/m 35,4 km/h (5 Bft) 100,00 %
17.02.2020 22:38 8,1 C 7,2 C 6,7 C 85 % 1016,1 hPa 0,0 l/m 0 min 0 min 0 W/m 25,7 km/h (4 Bft) 100,00 %
17.02.2020 22:40 8,1 C 7,2 C 6,7 C 86 % 1016,0 hPa 0,0 l/m 0 min 0 min 0 W/m 19,3 km/h (3 Bft) 100,00 %
17.02.2020 22:42 8,1 C 7,2 C 6,7 C 86 % 1016,2 hPa 0,0 l/m 0 min 0 min 0 W/m 16,1 km/h (3 Bft) 100,00 %
17.02.2020 22:44 8,1 C 7,2 C 6,7 C 86 % 1016,2 hPa 0,2 l/m 0 min 0 min 0 W/m 29,0 km/h (5 Bft) 100,00 %
17.02.2020 22:46 8,1 C 7,2 C 6,7 C 86 % 1016,2 hPa 0,0 l/m 0 min 0 min 0 W/m 35,4 km/h (5 Bft) 100,00 %
17.02.2020 22:48 8,1 C 7,2 C 6,7 C 86 % 1016,1 hPa 0,0 l/m 0 min 0 min 0 W/m 38,6 km/h (5 Bft) 100,00 %
17.02.2020 22:50 8,1 C 7,2 C 6,7 C 86 % 1016,1 hPa 0,0 l/m 0 min 0 min 0 W/m 22,5 km/h (4 Bft) 100,00 %
17.02.2020 22:52 8,1 C 7,2 C 6,7 C 86 % 1016,1 hPa 0,0 l/m 0 min 0 min 0 W/m 16,1 km/h (3 Bft) 97,87 %
17.02.2020 22:54 8,1 C 7,2 C 6,7 C 86 % 1016,3 hPa 0,0 l/m 0 min 0 min 0 W/m 19,3 km/h (3 Bft) 100,00 %
17.02.2020 22:56 8,1 C 7,2 C 6,7 C 86 % 1016,6 hPa 0,0 l/m 0 min 0 min 0 W/m 25,7 km/h (4 Bft) 100,00 %
17.02.2020 22:58 8,1 C 7,2 C 6,7 C 86 % 1016,1 hPa 0,0 l/m 0 min 0 min 0 W/m 29,0 km/h (5 Bft) 100,00 %
17.02.2020 23:00 8,1 C 7,2 C 6,7 C 86 % 1016,2 hPa 0,0 l/m 0 min 0 min 0 W/m 25,7 km/h (4 Bft) 100,00 %
17.02.2020 23:02 8,1 C 7,2 C 6,7 C 86 % 1016,2 hPa 0,0 l/m 0 min 0 min 0 W/m 16,1 km/h (3 Bft) 100,00 %
17.02.2020 23:04 8,0 C 7,2 C 6,7 C 86 % 1016,3 hPa 0,0 l/m 0 min 0 min 0 W/m 19,3 km/h (3 Bft) 93,62 %
17.02.2020 23:06 8,0 C 7,2 C 6,7 C 86 % 1016,3 hPa 0,0 l/m 0 min 0 min 0 W/m 19,3 km/h (3 Bft) 97,87 %
17.02.2020 23:08 8,0 C 7,2 C 6,7 C 86 % 1016,3 hPa 0,0 l/m 0 min 0 min 0 W/m 19,3 km/h (3 Bft) 97,87 %
17.02.2020 23:10 8,0 C 7,2 C 6,7 C 86 % 1016,4 hPa 0,0 l/m 0 min 0 min 0 W/m 19,3 km/h (3 Bft) 97,87 %
17.02.2020 23:12 7,9 C 7,2 C 6,7 C 86 % 1016,6 hPa 0,0 l/m 0 min 0 min 0 W/m 29,0 km/h (5 Bft) 95,74 %
17.02.2020 23:14 7,9 C 7,2 C 6,7 C 86 % 1016,6 hPa 0,0 l/m 0 min 0 min 0 W/m 22,5 km/h (4 Bft) 97,83 %
17.02.2020 23:16 7,9 C 7,2 C 6,7 C 86 % 1016,5 hPa 0,0 l/m 0 min 0 min 0 W/m 25,7 km/h (4 Bft) 95,74 %
17.02.2020 23:18 7,9 C 7,2 C 6,7 C 86 % 1016,5 hPa 0,0 l/m 0 min 0 min 0 W/m 25,7 km/h (4 Bft) 89,36 %
17.02.2020 23:20 7,9 C 7,2 C 6,7 C 86 % 1016,6 hPa 0,0 l/m 0 min 0 min 0 W/m 25,7 km/h (4 Bft) 97,87 %
17.02.2020 23:22 7,9 C 7,2 C 6,7 C 86 % 1016,5 hPa 0,0 l/m 0 min 0 min 0 W/m 22,5 km/h (4 Bft) 95,74 %
17.02.2020 23:24 7,9 C 7,2 C 6,7 C 86 % 1016,6 hPa 0,0 l/m 0 min 0 min 0 W/m 16,1 km/h (3 Bft) 97,87 %
17.02.2020 23:26 7,9 C 7,2 C 6,7 C 86 % 1016,6 hPa 0,0 l/m 0 min 0 min 0 W/m 29,0 km/h (5 Bft) 95,65 %
17.02.2020 23:28 7,9 C 7,2 C 6,7 C 86 % 1016,7 hPa 0,0 l/m 0 min 0 min 0 W/m 22,5 km/h (4 Bft) 95,74 %
17.02.2020 23:30 7,9 C 7,2 C 6,7 C 86 % 1016,7 hPa 0,0 l/m 0 min 0 min 0 W/m 16,1 km/h (3 Bft) 95,74 %
17.02.2020 23:32 7,9 C 7,2 C 6,7 C 86 % 1016,8 hPa 0,0 l/m 0 min 0 min 0 W/m 25,7 km/h (4 Bft) 98,15 %
17.02.2020 23:34 7,9 C 7,2 C 6,7 C 86 % 1016,8 hPa 0,0 l/m 0 min 0 min 0 W/m 22,5 km/h (4 Bft) 94,74 %
17.02.2020 23:36 7,9 C 7,2 C 6,7 C 86 % 1016,8 hPa 0,0 l/m 0 min 0 min 0 W/m 22,5 km/h (4 Bft) 95,65 %
17.02.2020 23:38 7,9 C 7,2 C 6,7 C 86 % 1016,8 hPa 0,0 l/m 0 min 0 min 0 W/m 29,0 km/h (5 Bft) 93,88 %
17.02.2020 23:40 7,9 C 7,2 C 6,7 C 86 % 1016,9 hPa 0,0 l/m 0 min 0 min 0 W/m 22,5 km/h (4 Bft) 95,74 %
17.02.2020 23:42 7,9 C 7,2 C 6,7 C 86 % 1017,0 hPa 0,0 l/m 0 min 0 min 0 W/m 22,5 km/h (4 Bft) 95,74 %
17.02.2020 23:44 7,9 C 7,2 C 6,7 C 86 % 1016,9 hPa 0,0 l/m 0 min 0 min 0 W/m 19,3 km/h (3 Bft) 91,49 %
17.02.2020 23:46 7,9 C 7,2 C 6,7 C 86 % 1017,0 hPa 0,0 l/m 0 min 0 min 0 W/m 16,1 km/h (3 Bft) 93,62 %
17.02.2020 23:48 7,9 C 7,2 C 6,7 C 86 % 1017,0 hPa 0,0 l/m 0 min 0 min 0 W/m 29,0 km/h (5 Bft) 94,34 %
17.02.2020 23:50 7,9 C 7,2 C 6,7 C 86 % 1017,1 hPa 0,0 l/m 0 min 0 min 0 W/m 19,3 km/h (3 Bft) 97,37 %
17.02.2020 23:52 7,9 C 7,2 C 6,7 C 86 % 1017,1 hPa 0,0 l/m 0 min 0 min 0 W/m 32,2 km/h (5 Bft) 97,96 %
17.02.2020 23:54 7,9 C 7,2 C 6,7 C 86 % 1017,1 hPa 0,0 l/m 0 min 0 min 0 W/m 12,9 km/h (3 Bft) 95,74 %
17.02.2020 23:56 7,9 C 7,2 C 6,7 C 86 % 1017,0 hPa 0,0 l/m 0 min 0 min 0 W/m 16,1 km/h (3 Bft) 96,30 %
17.02.2020 23:58 7,9 C 7,2 C 6,7 C 86 % 1017,0 hPa 0,0 l/m 0 min 0 min 0 W/m 22,5 km/h (4 Bft) 100,00 %
_ Min-Zeit 20:18 19:10 19:14 12:16 00:20 - - - - 16:02 09:12
Minimum _ 6,6 C 5,0 C 4,4 C 67 % 1007,0 hPa - - - - 0,0 km/h (0 Bft) 50,00 %
_ Max-Zeit 12:28 12:04 13:02 00:00 23:50 14:54 12:08 00:08 13:32 13:10 00:02
Maximum _ 11,7 C 15,6 C 12,8 C 96 % 1017,1 hPa 0,4 l/m 4 min 4 min 590 W/m 57,9 km/h
SW (7 Bft)
100,00 %
Durchschnitt _ 8,4 C 8,0 C 6,9 C 83 % 1013,0 hPa #3,4 l/m #3:24 h #2:38 h 184 W/m 24,0 km/h (4 Bft) 97,21 %
© 2020 W. Hausmann